Wetterdaten: Sonntag, 12.01.2020
Datum Zeit Temp. Aussen Temp. o. S. Temp +5cm Feuchte Auss Luftdruck Regen Sonnenschein Regendauer Solar Windben Empfang
12.01.2020 00:00 3,3 C 2,8 C 2,2 C 91 % 1027,5 hPa 0,0 l/m 0 min 0 min 0 W/m 16,1 km/h (3 Bft) 100,00 %
12.01.2020 00:02 3,3 C 2,8 C 2,2 C 91 % 1027,5 hPa 0,0 l/m 0 min 0 min 0 W/m 19,3 km/h (3 Bft) 100,00 %
12.01.2020 00:04 3,3 C 2,8 C 2,2 C 92 % 1027,5 hPa 0,0 l/m 0 min 0 min 0 W/m 19,3 km/h (3 Bft) 100,00 %
12.01.2020 00:08 3,3 C 2,8 C 2,2 C 92 % 1027,4 hPa 0,0 l/m 0 min 0 min 0 W/m 16,1 km/h (3 Bft) 100,00 %
12.01.2020 00:10 3,4 C 3,3 C 2,2 C 92 % 1027,5 hPa 0,0 l/m 0 min 0 min 0 W/m 19,3 km/h (3 Bft) 100,00 %
12.01.2020 00:12 3,4 C 3,3 C 2,2 C 92 % 1027,4 hPa 0,0 l/m 0 min 0 min 0 W/m 19,3 km/h (3 Bft) 100,00 %
12.01.2020 00:14 3,4 C 3,3 C 2,2 C 92 % 1027,2 hPa 0,0 l/m 0 min 0 min 0 W/m 16,1 km/h (3 Bft) 100,00 %
12.01.2020 00:16 3,4 C 3,3 C 2,2 C 92 % 1027,2 hPa 0,0 l/m 0 min 0 min 0 W/m 19,3 km/h (3 Bft) 100,00 %
12.01.2020 00:18 3,5 C 3,3 C 2,2 C 92 % 1027,1 hPa 0,0 l/m 0 min 0 min 0 W/m 22,5 km/h (4 Bft) 100,00 %
12.01.2020 00:20 3,5 C 3,3 C 2,2 C 92 % 1027,1 hPa 0,0 l/m 0 min 0 min 0 W/m 19,3 km/h (3 Bft) 100,00 %
12.01.2020 00:22 3,5 C 3,3 C 2,2 C 92 % 1027,1 hPa 0,0 l/m 0 min 0 min 0 W/m 19,3 km/h (3 Bft) 98,08 %
12.01.2020 00:24 3,5 C 2,8 C 2,2 C 92 % 1027,1 hPa 0,0 l/m 0 min 0 min 0 W/m 19,3 km/h (3 Bft) 100,00 %
12.01.2020 00:26 3,6 C 2,8 C 2,2 C 92 % 1027,0 hPa 0,0 l/m 0 min 0 min 0 W/m 16,1 km/h (3 Bft) 100,00 %
12.01.2020 00:28 3,6 C 2,8 C 2,2 C 92 % 1027,0 hPa 0,0 l/m 0 min 0 min 0 W/m 12,9 km/h (3 Bft) 100,00 %
12.01.2020 00:30 3,6 C 2,8 C 2,2 C 92 % 1027,0 hPa 0,0 l/m 0 min 0 min 0 W/m 22,5 km/h (4 Bft) 100,00 %
12.01.2020 00:32 3,6 C 2,8 C 2,2 C 91 % 1026,9 hPa 0,0 l/m 0 min 0 min 0 W/m 12,9 km/h (3 Bft) 100,00 %
12.01.2020 00:34 3,6 C 2,8 C 2,2 C 91 % 1026,9 hPa 0,0 l/m 0 min 0 min 0 W/m 12,9 km/h (3 Bft) 100,00 %
12.01.2020 00:36 3,6 C 2,8 C 2,2 C 91 % 1026,9 hPa 0,0 l/m 0 min 0 min 0 W/m 22,5 km/h (4 Bft) 100,00 %
12.01.2020 00:38 3,5 C 2,8 C 2,2 C 91 % 1026,9 hPa 0,0 l/m 0 min 0 min 0 W/m 12,9 km/h (3 Bft) 97,87 %
12.01.2020 00:40 3,5 C 2,8 C 2,2 C 91 % 1026,9 hPa 0,0 l/m 0 min 0 min 0 W/m 16,1 km/h (3 Bft) 100,00 %
12.01.2020 00:42 3,5 C 2,8 C 2,2 C 91 % 1026,9 hPa 0,0 l/m 0 min 0 min 0 W/m 19,3 km/h (3 Bft) 100,00 %
12.01.2020 00:44 3,4 C 2,8 C 2,2 C 91 % 1027,0 hPa 0,0 l/m 0 min 0 min 0 W/m 16,1 km/h (3 Bft) 100,00 %
12.01.2020 00:46 3,4 C 2,8 C 1,7 C 91 % 1026,9 hPa 0,0 l/m 0 min 0 min 0 W/m 16,1 km/h (3 Bft) 100,00 %
12.01.2020 00:48 3,4 C 2,8 C 1,7 C 91 % 1026,9 hPa 0,0 l/m 0 min 0 min 0 W/m 12,9 km/h (3 Bft) 100,00 %
12.01.2020 00:50 3,4 C 2,8 C 1,7 C 91 % 1026,8 hPa 0,0 l/m 0 min 0 min 0 W/m 16,1 km/h (3 Bft) 98,21 %
12.01.2020 00:52 3,4 C 2,8 C 1,7 C 91 % 1026,7 hPa 0,0 l/m 0 min 0 min 0 W/m 19,3 km/h (3 Bft) 97,37 %
12.01.2020 00:54 3,4 C 2,8 C 1,7 C 91 % 1026,7 hPa 0,0 l/m 0 min 0 min 0 W/m 16,1 km/h (3 Bft) 100,00 %
12.01.2020 00:56 3,3 C 2,8 C 1,7 C 91 % 1026,7 hPa 0,0 l/m 0 min 0 min 0 W/m 19,3 km/h (3 Bft) 97,87 %
12.01.2020 00:58 3,3 C 2,8 C 1,7 C 91 % 1026,6 hPa 0,0 l/m 0 min 0 min 0 W/m 19,3 km/h (3 Bft) 100,00 %
12.01.2020 01:00 3,3 C 2,8 C 1,7 C 91 % 1026,5 hPa 0,0 l/m 0 min 0 min 0 W/m 16,1 km/h (3 Bft) 100,00 %
12.01.2020 01:02 3,3 C 2,8 C 1,7 C 91 % 1026,5 hPa 0,0 l/m 0 min 0 min 0 W/m 19,3 km/h (3 Bft) 100,00 %
12.01.2020 01:04 3,3 C 2,2 C 1,7 C 91 % 1026,6 hPa 0,0 l/m 0 min 0 min 0 W/m 16,1 km/h (3 Bft) 100,00 %
12.01.2020 01:06 3,3 C 2,2 C 1,7 C 91 % 1026,6 hPa 0,0 l/m 0 min 0 min 0 W/m 16,1 km/h (3 Bft) 100,00 %
12.01.2020 01:08 3,3 C 2,2 C 1,7 C 91 % 1026,5 hPa 0,0 l/m 0 min 0 min 0 W/m 16,1 km/h (3 Bft) 100,00 %
12.01.2020 01:10 3,3 C 2,2 C 1,7 C 91 % 1026,4 hPa 0,0 l/m 0 min 0 min 0 W/m 12,9 km/h (3 Bft) 100,00 %
12.01.2020 01:12 3,2 C 2,2 C 1,7 C 91 % 1026,3 hPa 0,0 l/m 0 min 0 min 0 W/m 22,5 km/h (4 Bft) 97,83 %
12.01.2020 01:14 3,2 C 2,2 C 1,7 C 91 % 1026,4 hPa 0,0 l/m 0 min 0 min 0 W/m 12,9 km/h (3 Bft) 100,00 %
12.01.2020 01:16 3,2 C 2,2 C 1,7 C 91 % 1026,4 hPa 0,0 l/m 0 min 0 min 0 W/m 16,1 km/h (3 Bft) 100,00 %
12.01.2020 01:18 3,2 C 2,2 C 1,7 C 91 % 1026,4 hPa 0,0 l/m 0 min 0 min 0 W/m 16,1 km/h (3 Bft) 100,00 %
12.01.2020 01:20 3,2 C 2,2 C 1,7 C 91 % 1026,3 hPa 0,0 l/m 0 min 0 min 0 W/m 19,3 km/h (3 Bft) 100,00 %
12.01.2020 01:22 3,1 C 2,2 C 1,7 C 91 % 1026,2 hPa 0,0 l/m 0 min 0 min 0 W/m 19,3 km/h (3 Bft) 100,00 %
12.01.2020 01:24 3,1 C 2,2 C 1,7 C 91 % 1026,2 hPa 0,0 l/m 0 min 0 min 0 W/m 12,9 km/h (3 Bft) 100,00 %
12.01.2020 01:26 3,1 C 2,2 C 1,7 C 91 % 1026,1 hPa 0,0 l/m 0 min 0 min 0 W/m 6,4 km/h (2 Bft) 94,64 %
12.01.2020 01:28 3,1 C 2,2 C 1,7 C 91 % 1026,1 hPa 0,0 l/m 0 min 0 min 0 W/m 12,9 km/h (3 Bft) 97,37 %
12.01.2020 01:30 3,1 C 2,2 C 1,7 C 91 % 1026,1 hPa 0,0 l/m 0 min 0 min 0 W/m 12,9 km/h (3 Bft) 95,74 %
12.01.2020 01:32 3,1 C 2,2 C 1,7 C 91 % 1026,2 hPa 0,0 l/m 0 min 0 min 0 W/m 16,1 km/h (3 Bft) 97,87 %
12.01.2020 01:34 3,1 C 2,2 C 1,7 C 91 % 1026,2 hPa 0,0 l/m 0 min 0 min 0 W/m 12,9 km/h (3 Bft) 98,18 %
12.01.2020 01:36 3,0 C 2,2 C 1,7 C 91 % 1026,2 hPa 0,0 l/m 0 min 0 min 0 W/m 12,9 km/h (3 Bft) 95,74 %
12.01.2020 01:38 3,0 C 2,2 C 1,7 C 92 % 1026,2 hPa 0,0 l/m 0 min 0 min 0 W/m 16,1 km/h (3 Bft) 97,87 %
12.01.2020 01:40 3,0 C 2,2 C 1,7 C 92 % 1026,2 hPa 0,0 l/m 0 min 0 min 0 W/m 12,9 km/h (3 Bft) 92,11 %
12.01.2020 01:42 3,0 C 2,2 C 1,7 C 92 % 1026,2 hPa 0,0 l/m 0 min 0 min 0 W/m 12,9 km/h (3 Bft) 97,87 %
12.01.2020 01:44 3,0 C 2,2 C 1,7 C 92 % 1026,3 hPa 0,0 l/m 0 min 0 min 0 W/m 6,4 km/h (2 Bft) 95,74 %
12.01.2020 01:46 2,9 C 2,2 C 1,7 C 92 % 1026,3 hPa 0,0 l/m 0 min 0 min 0 W/m 12,9 km/h (3 Bft) 92,73 %
12.01.2020 01:48 2,9 C 2,2 C 1,7 C 92 % 1026,2 hPa 0,0 l/m 0 min 0 min 0 W/m 16,1 km/h (3 Bft) 97,37 %
12.01.2020 01:50 2,9 C 2,2 C 1,7 C 92 % 1026,2 hPa 0,0 l/m 0 min 0 min 0 W/m 12,9 km/h (3 Bft) 94,34 %
12.01.2020 01:52 2,9 C 2,2 C 1,7 C 92 % 1026,2 hPa 0,0 l/m 0 min 0 min 0 W/m 12,9 km/h (3 Bft) 95,74 %
12.01.2020 01:54 2,9 C 2,2 C 1,7 C 92 % 1026,1 hPa 0,0 l/m 0 min 0 min 0 W/m 12,9 km/h (3 Bft) 96,00 %
12.01.2020 01:56 2,9 C 2,2 C 1,7 C 92 % 1026,1 hPa 0,0 l/m 0 min 0 min 0 W/m 6,4 km/h (2 Bft) 94,74 %
12.01.2020 01:58 2,9 C 2,2 C 1,1 C 92 % 1026,1 hPa 0,0 l/m 0 min 0 min 0 W/m 12,9 km/h (3 Bft) 95,65 %
12.01.2020 02:00 2,9 C 2,2 C 1,7 C 92 % 1026,1 hPa 0,0 l/m 0 min 0 min 0 W/m 16,1 km/h (3 Bft) 95,74 %
12.01.2020 02:02 2,9 C 2,2 C 1,1 C 92 % 1026,0 hPa 0,0 l/m 0 min 0 min 0 W/m 12,9 km/h (3 Bft) 95,74 %
12.01.2020 02:04 2,9 C 2,2 C 1,7 C 92 % 1026,1 hPa 0,0 l/m 0 min 0 min 0 W/m 19,3 km/h (3 Bft) 94,64 %
12.01.2020 02:06 2,8 C 2,2 C 1,7 C 92 % 1026,0 hPa 0,0 l/m 0 min 0 min 0 W/m 16,1 km/h (3 Bft) 92,11 %
12.01.2020 02:08 2,9 C 2,2 C 1,7 C 92 % 1026,0 hPa 0,0 l/m 0 min 0 min 0 W/m 12,9 km/h (3 Bft) 93,48 %
12.01.2020 02:10 2,8 C 2,2 C 1,7 C 92 % 1026,0 hPa 0,0 l/m 0 min 0 min 0 W/m 12,9 km/h (3 Bft) 94,64 %
12.01.2020 02:12 2,8 C 2,2 C 1,7 C 92 % 1025,9 hPa 0,0 l/m 0 min 0 min 0 W/m 12,9 km/h (3 Bft) 95,74 %
12.01.2020 02:14 2,8 C 2,2 C 1,7 C 92 % 1025,9 hPa 0,0 l/m 0 min 0 min 0 W/m 16,1 km/h (3 Bft) 92,11 %
12.01.2020 02:16 2,8 C 2,2 C 1,7 C 92 % 1025,9 hPa 0,0 l/m 0 min 0 min 0 W/m 12,9 km/h (3 Bft) 93,62 %
12.01.2020 02:18 2,8 C 2,2 C 1,7 C 92 % 1025,9 hPa 0,0 l/m 0 min 0 min 0 W/m 12,9 km/h (3 Bft) 94,55 %
12.01.2020 02:20 2,8 C 2,2 C 1,1 C 92 % 1025,8 hPa 0,0 l/m 0 min 0 min 0 W/m 12,9 km/h (3 Bft) 94,74 %
12.01.2020 02:22 2,8 C 2,2 C 1,7 C 92 % 1025,8 hPa 0,0 l/m 0 min 0 min 0 W/m 16,1 km/h (3 Bft) 93,62 %
12.01.2020 02:24 2,8 C 2,2 C 1,7 C 92 % 1025,9 hPa 0,0 l/m 0 min 0 min 0 W/m 12,9 km/h (3 Bft) 92,86 %
12.01.2020 02:26 2,8 C 2,2 C 1,7 C 92 % 1025,9 hPa 0,0 l/m 0 min 0 min 0 W/m 16,1 km/h (3 Bft) 97,37 %
12.01.2020 02:28 2,8 C 2,2 C 1,7 C 93 % 1025,9 hPa 0,0 l/m 0 min 0 min 0 W/m 6,4 km/h (2 Bft) 95,74 %
12.01.2020 02:30 2,8 C 2,2 C 1,7 C 93 % 1025,9 hPa 0,0 l/m 0 min 0 min 0 W/m 16,1 km/h (3 Bft) 96,36 %
12.01.2020 02:32 2,8 C 2,2 C 1,7 C 93 % 1025,9 hPa 0,0 l/m 0 min 0 min 0 W/m 6,4 km/h (2 Bft) 94,74 %
12.01.2020 02:34 2,8 C 2,2 C 1,7 C 93 % 1025,8 hPa 0,0 l/m 0 min 0 min 0 W/m 19,3 km/h (3 Bft) 97,87 %
12.01.2020 02:36 2,8 C 2,2 C 1,7 C 92 % 1025,9 hPa 0,0 l/m 0 min 0 min 0 W/m 16,1 km/h (3 Bft) 95,74 %
12.01.2020 02:38 2,8 C 2,2 C 1,7 C 92 % 1025,8 hPa 0,0 l/m 0 min 0 min 0 W/m 16,1 km/h (3 Bft) 97,87 %
12.01.2020 02:40 2,8 C 2,2 C 1,7 C 92 % 1025,8 hPa 0,0 l/m 0 min 0 min 0 W/m 16,1 km/h (3 Bft) 97,87 %
12.01.2020 02:42 2,8 C 2,2 C 1,7 C 93 % 1025,8 hPa 0,0 l/m 0 min 0 min 0 W/m 16,1 km/h (3 Bft) 98,18 %
12.01.2020 02:44 2,8 C 2,2 C 1,7 C 93 % 1025,8 hPa 0,0 l/m 0 min 0 min 0 W/m 16,1 km/h (3 Bft) 97,37 %
12.01.2020 02:46 2,8 C 2,2 C 1,7 C 93 % 1025,8 hPa 0,0 l/m 0 min 0 min 0 W/m 12,9 km/h (3 Bft) 97,87 %
12.01.2020 02:48 2,8 C 2,2 C 1,7 C 93 % 1025,8 hPa 0,0 l/m 0 min 0 min 0 W/m 16,1 km/h (3 Bft) 96,43 %
12.01.2020 02:50 2,8 C 2,2 C 1,7 C 93 % 1025,9 hPa 0,0 l/m 0 min 0 min 0 W/m 16,1 km/h (3 Bft) 97,37 %
12.01.2020 02:52 2,8 C 2,2 C 1,7 C 93 % 1025,8 hPa 0,0 l/m 0 min 0 min 0 W/m 19,3 km/h (3 Bft) 97,87 %
12.01.2020 02:54 2,8 C 2,2 C 1,7 C 93 % 1025,8 hPa 0,0 l/m 0 min 0 min 0 W/m 19,3 km/h (3 Bft) 98,18 %
12.01.2020 02:56 2,8 C 2,2 C 1,7 C 93 % 1025,8 hPa 0,0 l/m 0 min 0 min 0 W/m 16,1 km/h (3 Bft) 97,37 %
12.01.2020 02:58 2,8 C 2,2 C 1,7 C 93 % 1025,8 hPa 0,0 l/m 0 min 0 min 0 W/m 19,3 km/h (3 Bft) 97,87 %
12.01.2020 03:00 2,8 C 2,2 C 1,7 C 93 % 1025,8 hPa 0,0 l/m 0 min 0 min 0 W/m 16,1 km/h (3 Bft) 97,87 %
12.01.2020 03:02 2,8 C 2,2 C 1,7 C 93 % 1025,7 hPa 0,0 l/m 0 min 0 min 0 W/m 19,3 km/h (3 Bft) 95,74 %
12.01.2020 03:04 2,8 C 2,2 C 1,7 C 93 % 1025,7 hPa 0,0 l/m 0 min 0 min 0 W/m 16,1 km/h (3 Bft) 98,18 %
12.01.2020 03:06 2,8 C 2,2 C 1,7 C 93 % 1025,7 hPa 0,0 l/m 0 min 0 min 0 W/m 16,1 km/h (3 Bft) 100,00 %
12.01.2020 03:08 2,8 C 2,2 C 1,7 C 93 % 1025,7 hPa 0,0 l/m 0 min 0 min 0 W/m 12,9 km/h (3 Bft) 100,00 %
12.01.2020 03:10 2,8 C 2,2 C 1,7 C 93 % 1025,6 hPa 0,0 l/m 0 min 0 min 0 W/m 19,3 km/h (3 Bft) 100,00 %
12.01.2020 03:12 2,8 C 2,2 C 1,7 C 93 % 1025,6 hPa 0,0 l/m 0 min 0 min 0 W/m 16,1 km/h (3 Bft) 100,00 %
12.01.2020 03:14 2,8 C 2,2 C 1,7 C 93 % 1025,6 hPa 0,0 l/m 0 min 0 min 0 W/m 16,1 km/h (3 Bft) 100,00 %
12.01.2020 03:16 2,9 C 2,2 C 1,7 C 93 % 1025,6 hPa 0,0 l/m 0 min 0 min 0 W/m 19,3 km/h (3 Bft) 100,00 %
12.01.2020 03:18 2,9 C 2,2 C 1,7 C 93 % 1025,6 hPa 0,0 l/m 0 min 0 min 0 W/m 19,3 km/h (3 Bft) 95,65 %
12.01.2020 03:20 2,9 C 2,2 C 1,7 C 93 % 1025,6 hPa 0,0 l/m 0 min 0 min 0 W/m 22,5 km/h (4 Bft) 100,00 %
12.01.2020 03:22 2,9 C 2,2 C 1,7 C 93 % 1025,5 hPa 0,0 l/m 0 min 0 min 0 W/m 22,5 km/h (4 Bft) 100,00 %
12.01.2020 03:24 2,9 C 2,2 C 1,7 C 93 % 1025,5 hPa 0,0 l/m 0 min 0 min 0 W/m 19,3 km/h (3 Bft) 44,44 %
12.01.2020 03:26 2,9 C 2,2 C 1,7 C 93 % 1025,4 hPa 0,0 l/m 0 min 0 min 0 W/m 19,3 km/h (3 Bft) 95,74 %
12.01.2020 03:28 2,9 C 2,2 C 1,7 C 93 % 1025,5 hPa 0,0 l/m 0 min 0 min 0 W/m 19,3 km/h (3 Bft) 100,00 %
12.01.2020 03:30 2,9 C 2,8 C 1,7 C 93 % 1025,4 hPa 0,0 l/m 0 min 0 min 0 W/m 25,7 km/h (4 Bft) 97,87 %
12.01.2020 03:32 2,9 C 2,2 C 1,7 C 93 % 1025,5 hPa 0,0 l/m 0 min 0 min 0 W/m 19,3 km/h (3 Bft) 100,00 %
12.01.2020 03:34 2,9 C 2,8 C 1,7 C 93 % 1025,4 hPa 0,0 l/m 0 min 0 min 0 W/m 22,5 km/h (4 Bft) 100,00 %
12.01.2020 03:36 2,9 C 2,8 C 1,7 C 93 % 1025,4 hPa 0,0 l/m 0 min 0 min 0 W/m 29,0 km/h (5 Bft) 100,00 %
12.01.2020 03:38 3,0 C 2,8 C 1,7 C 93 % 1025,4 hPa 0,0 l/m 0 min 0 min 0 W/m 19,3 km/h (3 Bft) 100,00 %
12.01.2020 03:40 3,0 C 2,8 C 1,7 C 93 % 1025,4 hPa 0,0 l/m 0 min 0 min 0 W/m 19,3 km/h (3 Bft) 100,00 %
12.01.2020 03:42 3,0 C 2,8 C 1,7 C 93 % 1025,4 hPa 0,0 l/m 0 min 0 min 0 W/m 22,5 km/h (4 Bft) 100,00 %
12.01.2020 03:44 3,0 C 2,8 C 1,7 C 93 % 1025,3 hPa 0,0 l/m 0 min 0 min 0 W/m 25,7 km/h (4 Bft) 100,00 %
12.01.2020 03:46 3,1 C 2,8 C 1,7 C 92 % 1025,3 hPa 0,0 l/m 0 min 0 min 0 W/m 22,5 km/h (4 Bft) 100,00 %
12.01.2020 03:48 3,1 C 2,8 C 1,7 C 92 % 1025,2 hPa 0,0 l/m 0 min 0 min 0 W/m 22,5 km/h (4 Bft) 100,00 %
12.01.2020 03:50 3,1 C 2,8 C 1,7 C 92 % 1025,2 hPa 0,0 l/m 0 min 0 min 0 W/m 25,7 km/h (4 Bft) 100,00 %
12.01.2020 03:52 3,1 C 2,8 C 2,2 C 92 % 1025,2 hPa 0,0 l/m 0 min 0 min 0 W/m 22,5 km/h (4 Bft) 100,00 %
12.01.2020 03:54 3,1 C 2,8 C 1,7 C 92 % 1025,1 hPa 0,0 l/m 0 min 0 min 0 W/m 25,7 km/h (4 Bft) 100,00 %
12.01.2020 03:56 3,1 C 2,8 C 1,7 C 92 % 1025,1 hPa 0,0 l/m 0 min 0 min 0 W/m 22,5 km/h (4 Bft) 100,00 %
12.01.2020 03:58 3,1 C 2,8 C 1,7 C 92 % 1025,1 hPa 0,0 l/m 0 min 0 min 0 W/m 25,7 km/h (4 Bft) 100,00 %
12.01.2020 04:00 3,1 C 2,8 C 1,7 C 92 % 1025,1 hPa 0,0 l/m 0 min 0 min 0 W/m 19,3 km/h (3 Bft) 100,00 %
12.01.2020 04:02 3,1 C 2,8 C 1,7 C 92 % 1025,0 hPa 0,0 l/m 0 min 0 min 0 W/m 19,3 km/h (3 Bft) 100,00 %
12.01.2020 04:04 3,1 C 2,8 C 1,7 C 92 % 1025,0 hPa 0,0 l/m 0 min 0 min 0 W/m 19,3 km/h (3 Bft) 98,18 %
12.01.2020 04:06 3,1 C 2,8 C 1,7 C 92 % 1025,0 hPa 0,0 l/m 0 min 0 min 0 W/m 19,3 km/h (3 Bft) 94,74 %
12.01.2020 04:08 3,2 C 2,8 C 1,7 C 92 % 1025,0 hPa 0,0 l/m 0 min 0 min 0 W/m 22,5 km/h (4 Bft) 100,00 %
12.01.2020 04:10 3,2 C 2,8 C 1,7 C 92 % 1025,0 hPa 0,0 l/m 0 min 0 min 0 W/m 25,7 km/h (4 Bft) 95,74 %
12.01.2020 04:12 3,2 C 2,8 C 2,2 C 92 % 1025,0 hPa 0,0 l/m 0 min 0 min 0 W/m 29,0 km/h (5 Bft) 96,43 %
12.01.2020 04:14 3,2 C 2,8 C 2,2 C 92 % 1025,0 hPa 0,0 l/m 0 min 0 min 0 W/m 25,7 km/h (4 Bft) 97,37 %
12.01.2020 04:16 3,2 C 2,8 C 2,2 C 92 % 1025,0 hPa 0,0 l/m 0 min 0 min 0 W/m 22,5 km/h (4 Bft) 97,83 %
12.01.2020 04:18 3,2 C 2,8 C 1,7 C 92 % 1025,0 hPa 0,0 l/m 0 min 0 min 0 W/m 19,3 km/h (3 Bft) 96,43 %
12.01.2020 04:20 3,2 C 2,8 C 1,7 C 92 % 1025,0 hPa 0,0 l/m 0 min 0 min 0 W/m 19,3 km/h (3 Bft) 93,62 %
12.01.2020 04:22 3,2 C 2,8 C 1,7 C 92 % 1025,0 hPa 0,0 l/m 0 min 0 min 0 W/m 12,9 km/h (3 Bft) 97,37 %
12.01.2020 04:24 3,2 C 2,2 C 1,7 C 92 % 1024,9 hPa 0,0 l/m 0 min 0 min 0 W/m 29,0 km/h (5 Bft) 93,62 %
12.01.2020 04:26 3,2 C 2,8 C 1,7 C 92 % 1024,9 hPa 0,0 l/m 0 min 0 min 0 W/m 19,3 km/h (3 Bft) 96,36 %
12.01.2020 04:28 3,2 C 2,8 C 1,7 C 92 % 1024,9 hPa 0,0 l/m 0 min 0 min 0 W/m 22,5 km/h (4 Bft) 94,74 %
12.01.2020 04:30 3,2 C 2,8 C 1,7 C 92 % 1024,8 hPa 0,0 l/m 0 min 0 min 0 W/m 19,3 km/h (3 Bft) 95,74 %
12.01.2020 04:32 3,2 C 2,8 C 1,7 C 92 % 1024,8 hPa 0,0 l/m 0 min 0 min 0 W/m 22,5 km/h (4 Bft) 94,64 %
12.01.2020 04:34 3,1 C 2,8 C 1,7 C 92 % 1024,8 hPa 0,0 l/m 0 min 0 min 0 W/m 19,3 km/h (3 Bft) 97,37 %
12.01.2020 04:36 3,1 C 2,2 C 1,7 C 92 % 1024,8 hPa 0,0 l/m 0 min 0 min 0 W/m 22,5 km/h (4 Bft) 95,74 %
12.01.2020 04:38 3,1 C 2,8 C 1,7 C 92 % 1024,7 hPa 0,0 l/m 0 min 0 min 0 W/m 22,5 km/h (4 Bft) 93,62 %
12.01.2020 04:40 3,1 C 2,8 C 1,7 C 92 % 1024,8 hPa 0,0 l/m 0 min 0 min 0 W/m 19,3 km/h (3 Bft) 94,55 %
12.01.2020 04:42 3,1 C 2,2 C 1,7 C 92 % 1024,7 hPa 0,0 l/m 0 min 0 min 0 W/m 16,1 km/h (3 Bft) 94,74 %
12.01.2020 04:44 3,1 C 2,2 C 1,7 C 92 % 1024,8 hPa 0,0 l/m 0 min 0 min 0 W/m 19,3 km/h (3 Bft) 95,74 %
12.01.2020 04:46 3,1 C 2,2 C 1,7 C 92 % 1024,8 hPa 0,0 l/m 0 min 0 min 0 W/m 19,3 km/h (3 Bft) 95,74 %
12.01.2020 04:48 3,1 C 2,2 C 1,7 C 92 % 1024,7 hPa 0,0 l/m 0 min 0 min 0 W/m 19,3 km/h (3 Bft) 96,43 %
12.01.2020 04:50 3,1 C 2,2 C 1,7 C 92 % 1024,7 hPa 0,0 l/m 0 min 0 min 0 W/m 22,5 km/h (4 Bft) 95,65 %
12.01.2020 04:52 3,1 C 2,2 C 1,7 C 92 % 1024,6 hPa 0,0 l/m 0 min 0 min 0 W/m 22,5 km/h (4 Bft) 95,74 %
12.01.2020 04:54 3,1 C 2,2 C 1,7 C 92 % 1024,6 hPa 0,0 l/m 0 min 0 min 0 W/m 22,5 km/h (4 Bft) 94,74 %
12.01.2020 04:56 3,1 C 2,2 C 1,7 C 92 % 1024,6 hPa 0,0 l/m 0 min 0 min 0 W/m 12,9 km/h (3 Bft) 97,87 %
12.01.2020 04:58 3,1 C 2,8 C 1,7 C 92 % 1024,6 hPa 0,0 l/m 0 min 0 min 0 W/m 22,5 km/h (4 Bft) 97,87 %
12.01.2020 05:00 3,1 C 2,8 C 2,2 C 92 % 1024,7 hPa 0,0 l/m 0 min 0 min 0 W/m 19,3 km/h (3 Bft) 96,36 %
12.01.2020 05:02 3,1 C 2,8 C 2,2 C 92 % 1024,7 hPa 0,0 l/m 0 min 0 min 0 W/m 22,5 km/h (4 Bft) 97,87 %
12.01.2020 05:04 3,1 C 2,8 C 2,2 C 92 % 1024,7 hPa 0,0 l/m 0 min 0 min 0 W/m 19,3 km/h (3 Bft) 100,00 %
12.01.2020 05:06 3,1 C 2,8 C 2,2 C 92 % 1024,8 hPa 0,0 l/m 0 min 0 min 0 W/m 16,1 km/h (3 Bft) 97,87 %
12.01.2020 05:08 3,1 C 2,8 C 2,2 C 92 % 1024,8 hPa 0,0 l/m 0 min 0 min 0 W/m 19,3 km/h (3 Bft) 98,21 %
12.01.2020 05:10 3,1 C 2,8 C 2,2 C 92 % 1024,8 hPa 0,0 l/m 0 min 0 min 0 W/m 16,1 km/h (3 Bft) 100,00 %
12.01.2020 05:12 3,2 C 2,8 C 2,2 C 92 % 1024,7 hPa 0,0 l/m 0 min 0 min 0 W/m 16,1 km/h (3 Bft) 97,87 %
12.01.2020 05:14 3,2 C 2,8 C 2,2 C 92 % 1024,7 hPa 0,0 l/m 0 min 0 min 0 W/m 16,1 km/h (3 Bft) 97,83 %
12.01.2020 05:16 3,2 C 2,8 C 2,2 C 92 % 1024,6 hPa 0,0 l/m 0 min 0 min 0 W/m 19,3 km/h (3 Bft) 100,00 %
12.01.2020 05:18 3,2 C 2,8 C 2,2 C 92 % 1024,5 hPa 0,0 l/m 0 min 0 min 0 W/m 19,3 km/h (3 Bft) 62,96 %
12.01.2020 05:20 3,2 C 2,8 C 2,2 C 92 % 1024,5 hPa 0,0 l/m 0 min 0 min 0 W/m 19,3 km/h (3 Bft) 100,00 %
12.01.2020 05:22 3,2 C 2,8 C 2,2 C 92 % 1024,5 hPa 0,0 l/m 0 min 0 min 0 W/m 22,5 km/h (4 Bft) 100,00 %
12.01.2020 05:24 3,2 C 2,8 C 2,2 C 92 % 1024,5 hPa 0,0 l/m 0 min 0 min 0 W/m 16,1 km/h (3 Bft) 100,00 %
12.01.2020 05:26 3,3 C 2,8 C 2,2 C 92 % 1024,5 hPa 0,0 l/m 0 min 0 min 0 W/m 25,7 km/h (4 Bft) 100,00 %
12.01.2020 05:28 3,3 C 2,8 C 2,2 C 92 % 1024,5 hPa 0,0 l/m 0 min 0 min 0 W/m 19,3 km/h (3 Bft) 100,00 %
12.01.2020 05:30 3,3 C 2,8 C 2,2 C 92 % 1024,6 hPa 0,0 l/m 0 min 0 min 0 W/m 12,9 km/h (3 Bft) 100,00 %
12.01.2020 05:32 3,3 C 2,8 C 2,2 C 92 % 1024,6 hPa 0,0 l/m 0 min 0 min 0 W/m 12,9 km/h (3 Bft) 100,00 %
12.01.2020 05:34 3,3 C 2,8 C 2,2 C 92 % 1024,7 hPa 0,0 l/m 0 min 0 min 0 W/m 22,5 km/h (4 Bft) 100,00 %
12.01.2020 05:36 3,3 C 2,8 C 2,2 C 92 % 1024,6 hPa 0,0 l/m 0 min 0 min 0 W/m 16,1 km/h (3 Bft) 100,00 %
12.01.2020 05:38 3,3 C 2,8 C 2,2 C 92 % 1024,6 hPa 0,0 l/m 0 min 0 min 0 W/m 12,9 km/h (3 Bft) 97,37 %
12.01.2020 05:40 3,3 C 2,8 C 2,2 C 92 % 1024,6 hPa 0,0 l/m 0 min 0 min 0 W/m 16,1 km/h (3 Bft) 97,87 %
12.01.2020 05:42 3,3 C 2,8 C 2,2 C 92 % 1024,6 hPa 0,0 l/m 0 min 0 min 0 W/m 19,3 km/h (3 Bft) 96,43 %
12.01.2020 05:44 3,3 C 2,8 C 2,2 C 92 % 1024,6 hPa 0,0 l/m 0 min 0 min 0 W/m 16,1 km/h (3 Bft) 97,87 %
12.01.2020 05:46 3,3 C 2,8 C 2,2 C 92 % 1024,6 hPa 0,0 l/m 0 min 0 min 0 W/m 19,3 km/h (3 Bft) 97,37 %
12.01.2020 05:48 3,3 C 2,8 C 2,2 C 92 % 1024,5 hPa 0,0 l/m 0 min 0 min 0 W/m 19,3 km/h (3 Bft) 97,87 %
12.01.2020 05:50 3,3 C 2,8 C 2,2 C 92 % 1024,5 hPa 0,0 l/m 0 min 0 min 0 W/m 22,5 km/h (4 Bft) 97,83 %
12.01.2020 05:52 3,3 C 2,8 C 2,2 C 92 % 1024,5 hPa 0,0 l/m 0 min 0 min 0 W/m 16,1 km/h (3 Bft) 97,87 %
12.01.2020 05:54 3,3 C 2,8 C 2,2 C 92 % 1024,5 hPa 0,0 l/m 0 min 0 min 0 W/m 22,5 km/h (4 Bft) 94,64 %
12.01.2020 05:56 3,4 C 2,8 C 2,2 C 92 % 1024,4 hPa 0,0 l/m 0 min 0 min 0 W/m 19,3 km/h (3 Bft) 100,00 %
12.01.2020 05:58 3,4 C 2,8 C 2,2 C 92 % 1024,4 hPa 0,0 l/m 0 min 0 min 0 W/m 19,3 km/h (3 Bft) 97,87 %
12.01.2020 06:00 3,4 C 2,8 C 2,2 C 92 % 1024,4 hPa 0,0 l/m 0 min 0 min 0 W/m 19,3 km/h (3 Bft) 96,36 %
12.01.2020 06:02 3,4 C 2,8 C 2,2 C 92 % 1024,3 hPa 0,0 l/m 0 min 0 min 0 W/m 22,5 km/h (4 Bft) 97,37 %
12.01.2020 06:04 3,4 C 3,3 C 2,2 C 92 % 1024,3 hPa 0,0 l/m 0 min 0 min 0 W/m 25,7 km/h (4 Bft) 97,87 %
12.01.2020 06:06 3,4 C 3,3 C 2,2 C 91 % 1024,3 hPa 0,0 l/m 0 min 0 min 0 W/m 22,5 km/h (4 Bft) 98,21 %
12.01.2020 06:08 3,4 C 2,8 C 2,2 C 91 % 1024,3 hPa 0,0 l/m 0 min 0 min 0 W/m 19,3 km/h (3 Bft) 97,37 %
12.01.2020 06:10 3,5 C 2,8 C 2,2 C 91 % 1024,2 hPa 0,0 l/m 0 min 0 min 0 W/m 19,3 km/h (3 Bft) 97,87 %
12.01.2020 06:12 3,5 C 2,8 C 2,2 C 91 % 1024,2 hPa 0,0 l/m 0 min 0 min 0 W/m 12,9 km/h (3 Bft) 95,65 %
12.01.2020 06:14 3,5 C 2,8 C 2,2 C 91 % 1024,2 hPa 0,0 l/m 0 min 0 min 0 W/m 19,3 km/h (3 Bft) 98,21 %
12.01.2020 06:16 3,5 C 2,8 C 2,2 C 91 % 1024,2 hPa 0,0 l/m 0 min 0 min 0 W/m 16,1 km/h (3 Bft) 97,37 %
12.01.2020 06:18 3,5 C 2,8 C 2,2 C 91 % 1024,2 hPa 0,0 l/m 0 min 0 min 0 W/m 25,7 km/h (4 Bft) 97,87 %
12.01.2020 06:20 3,6 C 2,8 C 2,2 C 91 % 1024,2 hPa 0,0 l/m 0 min 0 min 0 W/m 22,5 km/h (4 Bft) 98,21 %
12.01.2020 06:22 3,6 C 3,3 C 2,2 C 91 % 1024,1 hPa 0,0 l/m 0 min 0 min 0 W/m 22,5 km/h (4 Bft) 97,37 %
12.01.2020 06:24 3,6 C 3,3 C 2,2 C 91 % 1024,1 hPa 0,0 l/m 0 min 0 min 0 W/m 19,3 km/h (3 Bft) 97,83 %
12.01.2020 06:26 3,6 C 3,3 C 2,2 C 91 % 1024,1 hPa 0,0 l/m 0 min 0 min 0 W/m 19,3 km/h (3 Bft) 95,74 %
12.01.2020 06:28 3,6 C 3,3 C 2,2 C 91 % 1024,0 hPa 0,0 l/m 0 min 0 min 0 W/m 25,7 km/h (4 Bft) 98,21 %
12.01.2020 06:30 3,6 C 3,3 C 2,8 C 91 % 1024,0 hPa 0,0 l/m 0 min 0 min 0 W/m 16,1 km/h (3 Bft) 97,37 %
12.01.2020 06:32 3,6 C 3,3 C 2,8 C 91 % 1024,0 hPa 0,0 l/m 0 min 0 min 0 W/m 16,1 km/h (3 Bft) 97,87 %
12.01.2020 06:34 3,6 C 3,3 C 2,8 C 91 % 1024,0 hPa 0,0 l/m 0 min 0 min 0 W/m 29,0 km/h (5 Bft) 97,87 %
12.01.2020 06:36 3,6 C 3,3 C 2,8 C 91 % 1024,0 hPa 0,0 l/m 0 min 0 min 0 W/m 25,7 km/h (4 Bft) 98,18 %
12.01.2020 06:38 3,7 C 3,3 C 2,8 C 91 % 1023,9 hPa 0,0 l/m 0 min 0 min 0 W/m 22,5 km/h (4 Bft) 100,00 %
12.01.2020 06:40 3,7 C 3,3 C 2,8 C 91 % 1023,9 hPa 0,0 l/m 0 min 0 min 0 W/m 25,7 km/h (4 Bft) 100,00 %
12.01.2020 06:42 3,7 C 3,3 C 2,8 C 91 % 1023,9 hPa 0,0 l/m 0 min 0 min 0 W/m 19,3 km/h (3 Bft) 100,00 %
12.01.2020 06:44 3,7 C 3,3 C 2,8 C 91 % 1023,9 hPa 0,0 l/m 0 min 0 min 0 W/m 22,5 km/h (4 Bft) 100,00 %
12.01.2020 06:46 3,7 C 3,3 C 2,8 C 91 % 1023,8 hPa 0,0 l/m 0 min 0 min 0 W/m 19,3 km/h (3 Bft) 98,18 %
12.01.2020 06:48 3,8 C 3,3 C 2,8 C 91 % 1023,9 hPa 0,0 l/m 0 min 0 min 0 W/m 22,5 km/h (4 Bft) 95,74 %
12.01.2020 06:50 3,8 C 3,3 C 2,8 C 91 % 1023,8 hPa 0,0 l/m 0 min 0 min 0 W/m 16,1 km/h (3 Bft) 97,37 %
12.01.2020 06:52 3,8 C 3,3 C 2,8 C 91 % 1023,8 hPa 0,0 l/m 0 min 0 min 0 W/m 22,5 km/h (4 Bft) 97,87 %
12.01.2020 06:54 3,8 C 3,3 C 2,8 C 91 % 1023,8 hPa 0,0 l/m 0 min 0 min 0 W/m 25,7 km/h (4 Bft) 95,74 %
12.01.2020 06:56 3,8 C 3,3 C 2,8 C 91 % 1023,7 hPa 0,0 l/m 0 min 0 min 0 W/m 32,2 km/h (5 Bft) 94,55 %
12.01.2020 06:58 3,9 C 3,3 C 2,8 C 91 % 1023,6 hPa 0,0 l/m 0 min 0 min 0 W/m 22,5 km/h (4 Bft) 96,00 %
12.01.2020 07:00 3,9 C 3,3 C 2,8 C 91 % 1023,5 hPa 0,0 l/m 0 min 0 min 0 W/m 22,5 km/h (4 Bft) 97,37 %
12.01.2020 07:02 3,9 C 3,3 C 2,8 C 91 % 1023,5 hPa 0,0 l/m 0 min 0 min 0 W/m 19,3 km/h (3 Bft) 98,00 %
12.01.2020 07:04 3,9 C 3,9 C 2,8 C 91 % 1023,4 hPa 0,0 l/m 0 min 0 min 0 W/m 22,5 km/h (4 Bft) 98,00 %
12.01.2020 07:06 4,0 C 3,9 C 2,8 C 90 % 1023,4 hPa 0,0 l/m 0 min 0 min 0 W/m 25,7 km/h (4 Bft) 95,74 %
12.01.2020 07:08 4,0 C 3,9 C 2,8 C 90 % 1023,4 hPa 0,0 l/m 0 min 0 min 0 W/m 22,5 km/h (4 Bft) 97,14 %
12.01.2020 07:10 4,1 C 3,9 C 2,8 C 90 % 1023,3 hPa 0,0 l/m 0 min 0 min 0 W/m 25,7 km/h (4 Bft) 96,36 %
12.01.2020 07:12 4,1 C 3,9 C 2,8 C 90 % 1023,3 hPa 0,0 l/m 0 min 0 min 0 W/m 22,5 km/h (4 Bft) 96,00 %
12.01.2020 07:14 4,1 C 3,9 C 2,8 C 90 % 1023,3 hPa 0,0 l/m 0 min 0 min 0 W/m 19,3 km/h (3 Bft) 93,62 %
12.01.2020 07:16 4,1 C 3,9 C 2,8 C 90 % 1023,3 hPa 0,0 l/m 0 min 0 min 0 W/m 22,5 km/h (4 Bft) 97,14 %
12.01.2020 07:18 4,1 C 3,9 C 3,3 C 90 % 1023,3 hPa 0,0 l/m 0 min 0 min 0 W/m 22,5 km/h (4 Bft) 94,64 %
12.01.2020 07:20 4,1 C 3,9 C 3,3 C 90 % 1023,3 hPa 0,0 l/m 0 min 0 min 0 W/m 19,3 km/h (3 Bft) 93,88 %
12.01.2020 07:22 4,2 C 3,9 C 3,3 C 90 % 1023,3 hPa 0,0 l/m 0 min 0 min 0 W/m 22,5 km/h (4 Bft) 91,67 %
12.01.2020 07:24 4,2 C 3,9 C 3,3 C 90 % 1023,2 hPa 0,0 l/m 0 min 0 min 0 W/m 22,5 km/h (4 Bft) 94,23 %
12.01.2020 07:26 4,2 C 3,9 C 3,3 C 90 % 1023,3 hPa 0,0 l/m 0 min 0 min 0 W/m 19,3 km/h (3 Bft) 95,74 %
12.01.2020 07:28 4,2 C 3,9 C 3,3 C 90 % 1023,1 hPa 0,0 l/m 0 min 0 min 0 W/m 29,0 km/h (5 Bft) 96,00 %
12.01.2020 07:30 4,3 C 3,9 C 3,3 C 90 % 1023,2 hPa 0,0 l/m 0 min 0 min 0 W/m 19,3 km/h (3 Bft) 98,00 %
12.01.2020 07:32 4,3 C 3,9 C 3,3 C 90 % 1023,1 hPa 0,0 l/m 0 min 0 min 0 W/m 19,3 km/h (3 Bft) 95,65 %
12.01.2020 07:34 4,3 C 3,9 C 3,3 C 90 % 1023,2 hPa 0,0 l/m 0 min 0 min 0 W/m 19,3 km/h (3 Bft) 97,14 %
12.01.2020 07:36 4,3 C 3,9 C 3,3 C 90 % 1023,2 hPa 0,0 l/m 0 min 0 min 0 W/m 22,5 km/h (4 Bft) 96,23 %
12.01.2020 07:38 4,3 C 3,9 C 3,3 C 90 % 1023,2 hPa 0,0 l/m 0 min 0 min 0 W/m 19,3 km/h (3 Bft) 98,00 %
12.01.2020 07:40 4,3 C 3,9 C 3,3 C 90 % 1023,2 hPa 0,0 l/m 0 min 0 min 0 W/m 19,3 km/h (3 Bft) 98,00 %
12.01.2020 07:42 4,3 C 3,9 C 3,3 C 90 % 1023,2 hPa 0,0 l/m 0 min 0 min 0 W/m 22,5 km/h (4 Bft) 94,29 %
12.01.2020 07:44 4,3 C 3,9 C 3,3 C 90 % 1023,2 hPa 0,0 l/m 0 min 0 min 0 W/m 25,7 km/h (4 Bft) 98,18 %
12.01.2020 07:46 4,4 C 3,9 C 3,3 C 90 % 1023,2 hPa 0,0 l/m 0 min 0 min 0 W/m 19,3 km/h (3 Bft) 97,87 %
12.01.2020 07:48 4,4 C 3,9 C 3,3 C 90 % 1023,1 hPa 0,0 l/m 0 min 0 min 0 W/m 16,1 km/h (3 Bft) 97,87 %
12.01.2020 07:50 4,4 C 3,9 C 3,3 C 90 % 1023,1 hPa 0,0 l/m 0 min 0 min 0 W/m 16,1 km/h (3 Bft) 96,00 %
12.01.2020 07:52 4,4 C 3,9 C 3,3 C 90 % 1023,1 hPa 0,0 l/m 0 min 0 min 0 W/m 16,1 km/h (3 Bft) 100,00 %
12.01.2020 07:54 4,4 C 3,9 C 3,3 C 90 % 1023,1 hPa 0,0 l/m 0 min 0 min 0 W/m 19,3 km/h (3 Bft) 98,11 %
12.01.2020 07:56 4,4 C 3,9 C 3,3 C 89 % 1023,0 hPa 0,0 l/m 0 min 0 min 0 W/m 22,5 km/h (4 Bft) 100,00 %
12.01.2020 07:58 4,5 C 3,9 C 3,3 C 89 % 1023,0 hPa 0,0 l/m 0 min 0 min 0 W/m 16,1 km/h (3 Bft) 100,00 %
12.01.2020 08:00 4,5 C 3,9 C 3,3 C 89 % 1022,9 hPa 0,0 l/m 0 min 0 min 0 W/m 25,7 km/h (4 Bft) 100,00 %
12.01.2020 08:02 4,5 C 3,9 C 3,3 C 89 % 1022,8 hPa 0,0 l/m 0 min 0 min 0 W/m 16,1 km/h (3 Bft) 100,00 %
12.01.2020 08:04 4,5 C 3,9 C 3,3 C 89 % 1022,9 hPa 0,0 l/m 0 min 0 min 0 W/m 25,7 km/h (4 Bft) 100,00 %
12.01.2020 08:06 4,6 C 3,9 C 3,3 C 89 % 1022,8 hPa 0,0 l/m 0 min 0 min 0 W/m 19,3 km/h (3 Bft) 100,00 %
12.01.2020 08:08 4,6 C 3,9 C 3,3 C 89 % 1022,8 hPa 0,0 l/m 0 min 0 min 0 W/m 19,3 km/h (3 Bft) 100,00 %
12.01.2020 08:10 4,6 C 3,9 C 3,3 C 89 % 1022,8 hPa 0,0 l/m 0 min 0 min 0 W/m 22,5 km/h (4 Bft) 100,00 %
12.01.2020 08:12 4,6 C 3,9 C 3,3 C 89 % 1022,8 hPa 0,0 l/m 0 min 0 min 0 W/m 19,3 km/h (3 Bft) 100,00 %
12.01.2020 08:14 4,6 C 4,4 C 3,3 C 89 % 1022,8 hPa 0,0 l/m 0 min 0 min 0 W/m 16,1 km/h (3 Bft) 100,00 %
12.01.2020 08:16 4,6 C 4,4 C 3,3 C 89 % 1022,8 hPa 0,0 l/m 0 min 0 min 0 W/m 25,7 km/h (4 Bft) 93,62 %
12.01.2020 08:18 4,6 C 4,4 C 3,3 C 89 % 1022,8 hPa 0,0 l/m 0 min 0 min 0 W/m 12,9 km/h (3 Bft) 100,00 %
12.01.2020 08:20 4,6 C 4,4 C 3,3 C 89 % 1022,8 hPa 0,0 l/m 0 min 0 min 0 W/m 19,3 km/h (3 Bft) 100,00 %
12.01.2020 08:22 4,7 C 4,4 C 3,9 C 89 % 1022,7 hPa 0,0 l/m 0 min 0 min 0 W/m 22,5 km/h (4 Bft) 100,00 %
12.01.2020 08:24 4,7 C 4,4 C 3,9 C 89 % 1022,7 hPa 0,0 l/m 0 min 0 min 0 W/m 22,5 km/h (4 Bft) 100,00 %
12.01.2020 08:26 4,7 C 4,4 C 3,9 C 89 % 1022,7 hPa 0,0 l/m 0 min 0 min 0 W/m 22,5 km/h (4 Bft) 100,00 %
12.01.2020 08:28 4,7 C 4,4 C 3,9 C 89 % 1022,7 hPa 0,0 l/m 0 min 0 min 0 W/m 16,1 km/h (3 Bft) 100,00 %
12.01.2020 08:30 4,7 C 4,4 C 3,3 C 89 % 1022,7 hPa 0,0 l/m 0 min 0 min 0 W/m 12,9 km/h (3 Bft) 100,00 %
12.01.2020 08:32 4,8 C 4,4 C 3,3 C 89 % 1022,7 hPa 0,0 l/m 0 min 0 min 0 W/m 19,3 km/h (3 Bft) 100,00 %
12.01.2020 08:34 4,8 C 4,4 C 3,3 C 89 % 1022,6 hPa 0,0 l/m 0 min 0 min 0 W/m 38,6 km/h (5 Bft) 100,00 %
12.01.2020 08:36 4,8 C 4,4 C 3,9 C 89 % 1022,6 hPa 0,0 l/m 0 min 0 min 0 W/m 22,5 km/h (4 Bft) 100,00 %
12.01.2020 08:38 4,8 C 4,4 C 3,9 C 89 % 1022,6 hPa 0,0 l/m 0 min 0 min 2 W/m 16,1 km/h (3 Bft) 98,21 %
12.01.2020 08:40 4,8 C 4,4 C 3,9 C 89 % 1022,6 hPa 0,0 l/m 0 min 0 min 5 W/m 22,5 km/h (4 Bft) 100,00 %
12.01.2020 08:42 4,9 C 4,4 C 3,9 C 89 % 1022,7 hPa 0,0 l/m 0 min 0 min 6 W/m 19,3 km/h (3 Bft) 100,00 %
12.01.2020 08:44 4,9 C 4,4 C 3,9 C 89 % 1022,6 hPa 0,0 l/m 0 min 0 min 7 W/m 19,3 km/h (3 Bft) 100,00 %
12.01.2020 08:46 4,9 C 4,4 C 3,9 C 89 % 1022,6 hPa 0,0 l/m 0 min 0 min 7 W/m 19,3 km/h (3 Bft) 100,00 %
12.01.2020 08:48 4,9 C 4,4 C 3,9 C 88 % 1022,6 hPa 0,0 l/m 0 min 0 min 9 W/m 19,3 km/h (3 Bft) 100,00 %
12.01.2020 08:50 4,9 C 4,4 C 3,9 C 88 % 1022,5 hPa 0,0 l/m 0 min 0 min 9 W/m 22,5 km/h (4 Bft) 100,00 %
12.01.2020 08:52 5,0 C 4,4 C 3,9 C 88 % 1022,5 hPa 0,0 l/m 0 min 0 min 10 W/m 22,5 km/h (4 Bft) 100,00 %
12.01.2020 08:54 5,0 C 4,4 C 3,9 C 88 % 1022,5 hPa 0,0 l/m 0 min 0 min 12 W/m 16,1 km/h (3 Bft) 100,00 %
12.01.2020 08:56 5,0 C 4,4 C 3,9 C 88 % 1022,5 hPa 0,0 l/m 0 min 0 min 13 W/m 16,1 km/h (3 Bft) 97,87 %
12.01.2020 08:58 5,0 C 4,4 C 3,9 C 88 % 1022,5 hPa 0,0 l/m 0 min 0 min 14 W/m 16,1 km/h (3 Bft) 97,87 %
12.01.2020 09:00 5,0 C 4,4 C 3,9 C 88 % 1022,4 hPa 0,0 l/m 0 min 0 min 17 W/m 22,5 km/h (4 Bft) 98,21 %
12.01.2020 09:02 5,1 C 4,4 C 3,9 C 88 % 1022,4 hPa 0,0 l/m 0 min 0 min 20 W/m 19,3 km/h (3 Bft) 97,87 %
12.01.2020 09:04 5,1 C 4,4 C 3,9 C 88 % 1022,5 hPa 0,0 l/m 0 min 0 min 25 W/m 19,3 km/h (3 Bft) 97,83 %
12.01.2020 09:06 5,1 C 4,4 C 3,9 C 88 % 1022,5 hPa 0,0 l/m 0 min 0 min 26 W/m 16,1 km/h (3 Bft) 97,37 %
12.01.2020 09:08 5,1 C 5,0 C 3,9 C 88 % 1022,5 hPa 0,0 l/m 0 min 0 min 26 W/m 16,1 km/h (3 Bft) 97,87 %
12.01.2020 09:10 5,1 C 5,0 C 3,9 C 88 % 1022,5 hPa 0,0 l/m 0 min 0 min 27 W/m 16,1 km/h (3 Bft) 98,21 %
12.01.2020 09:12 5,1 C 5,0 C 3,9 C 88 % 1022,5 hPa 0,0 l/m 0 min 0 min 30 W/m 16,1 km/h (3 Bft) 97,37 %
12.01.2020 09:14 5,1 C 5,0 C 3,9 C 88 % 1022,5 hPa 0,0 l/m 0 min 0 min 28 W/m 25,7 km/h (4 Bft) 100,00 %
12.01.2020 09:16 5,1 C 5,0 C 3,9 C 88 % 1022,4 hPa 0,0 l/m 0 min 0 min 27 W/m 32,2 km/h (5 Bft) 97,87 %
12.01.2020 09:18 5,1 C 5,0 C 3,9 C 88 % 1022,5 hPa 0,0 l/m 0 min 0 min 26 W/m 19,3 km/h (3 Bft) 98,18 %
12.01.2020 09:20 5,1 C 5,0 C 3,9 C 88 % 1022,4 hPa 0,0 l/m 0 min 0 min 26 W/m 19,3 km/h (3 Bft) 94,74 %
12.01.2020 09:22 5,1 C 5,0 C 3,9 C 88 % 1022,4 hPa 0,0 l/m 0 min 0 min 24 W/m 25,7 km/h (4 Bft) 95,74 %
12.01.2020 09:24 5,2 C 5,0 C 3,9 C 88 % 1022,5 hPa 0,0 l/m 0 min 0 min 23 W/m 19,3 km/h (3 Bft) 95,74 %
12.01.2020 09:26 5,2 C 5,0 C 3,9 C 88 % 1022,5 hPa 0,0 l/m 0 min 0 min 23 W/m 19,3 km/h (3 Bft) 94,64 %
12.01.2020 09:28 5,2 C 5,0 C 3,9 C 88 % 1022,5 hPa 0,0 l/m 0 min 0 min 23 W/m 32,2 km/h (5 Bft) 94,74 %
12.01.2020 09:30 5,2 C 5,0 C 3,9 C 88 % 1022,4 hPa 0,0 l/m 0 min 0 min 23 W/m 22,5 km/h (4 Bft) 95,65 %
12.01.2020 09:32 5,2 C 5,0 C 3,9 C 88 % 1022,4 hPa 0,0 l/m 0 min 0 min 24 W/m 16,1 km/h (3 Bft) 92,86 %
12.01.2020 09:34 5,2 C 5,0 C 3,9 C 88 % 1022,5 hPa 0,0 l/m 0 min 0 min 26 W/m 25,7 km/h (4 Bft) 97,37 %
12.01.2020 09:36 5,2 C 5,0 C 3,9 C 88 % 1022,4 hPa 0,0 l/m 0 min 0 min 23 W/m 16,1 km/h (3 Bft) 93,62 %
12.01.2020 09:38 5,2 C 5,0 C 3,9 C 88 % 1022,4 hPa 0,0 l/m 0 min 0 min 23 W/m 19,3 km/h (3 Bft) 96,36 %
12.01.2020 09:40 5,2 C 5,0 C 3,9 C 88 % 1022,5 hPa 0,0 l/m 0 min 0 min 22 W/m 19,3 km/h (3 Bft) 97,44 %
12.01.2020 09:42 5,3 C 5,0 C 3,9 C 88 % 1022,4 hPa 0,0 l/m 0 min 0 min 21 W/m 19,3 km/h (3 Bft) 95,65 %
12.01.2020 09:44 5,3 C 5,0 C 3,9 C 88 % 1022,4 hPa 0,0 l/m 0 min 0 min 23 W/m 25,7 km/h (4 Bft) 94,64 %
12.01.2020 09:46 5,3 C 5,0 C 3,9 C 88 % 1022,5 hPa 0,0 l/m 0 min 0 min 26 W/m 22,5 km/h (4 Bft) 95,74 %
12.01.2020 09:48 5,3 C 5,0 C 3,9 C 88 % 1022,5 hPa 0,0 l/m 0 min 0 min 30 W/m 19,3 km/h (3 Bft) 94,74 %
12.01.2020 09:50 5,3 C 5,0 C 3,9 C 88 % 1022,4 hPa 0,0 l/m 0 min 0 min 31 W/m 22,5 km/h (4 Bft) 95,74 %
12.01.2020 09:52 5,3 C 5,0 C 4,4 C 88 % 1022,4 hPa 0,0 l/m 0 min 0 min 32 W/m 19,3 km/h (3 Bft) 95,65 %
12.01.2020 09:54 5,3 C 5,0 C 4,4 C 88 % 1022,4 hPa 0,0 l/m 0 min 0 min 34 W/m 19,3 km/h (3 Bft) 91,07 %
12.01.2020 09:56 5,3 C 5,0 C 4,4 C 88 % 1022,4 hPa 0,0 l/m 0 min 0 min 35 W/m 29,0 km/h (5 Bft) 95,74 %
12.01.2020 09:58 5,4 C 5,0 C 4,4 C 88 % 1022,4 hPa 0,0 l/m 0 min 0 min 37 W/m 25,7 km/h (4 Bft) 94,74 %
12.01.2020 10:00 5,4 C 5,6 C 4,4 C 88 % 1022,4 hPa 0,0 l/m 0 min 0 min 39 W/m 25,7 km/h (4 Bft) 95,74 %
12.01.2020 10:02 5,4 C 5,6 C 4,4 C 88 % 1022,4 hPa 0,0 l/m 0 min 0 min 37 W/m 19,3 km/h (3 Bft) 94,55 %
12.01.2020 10:04 5,4 C 5,6 C 4,4 C 88 % 1022,4 hPa 0,0 l/m 0 min 0 min 48 W/m 25,7 km/h (4 Bft) 95,74 %
12.01.2020 10:06 5,5 C 5,6 C 4,4 C 88 % 1022,4 hPa 0,0 l/m 0 min 0 min 52 W/m 16,1 km/h (3 Bft) 97,37 %
12.01.2020 10:08 5,5 C 5,6 C 4,4 C 88 % 1022,4 hPa 0,0 l/m 0 min 0 min 40 W/m 32,2 km/h (5 Bft) 95,74 %
12.01.2020 10:10 5,6 C 5,6 C 4,4 C 88 % 1022,5 hPa 0,0 l/m 0 min 0 min 58 W/m 22,5 km/h (4 Bft) 96,43 %
12.01.2020 10:12 5,6 C 5,6 C 5,0 C 88 % 1022,5 hPa 0,0 l/m 0 min 0 min 71 W/m 19,3 km/h (3 Bft) 97,87 %
12.01.2020 10:14 5,6 C 5,6 C 5,0 C 88 % 1022,5 hPa 0,0 l/m 0 min 0 min 77 W/m 32,2 km/h (5 Bft) 97,37 %
12.01.2020 10:16 5,7 C 6,1 C 5,0 C 88 % 1022,5 hPa 0,0 l/m 0 min 0 min 77 W/m 19,3 km/h (3 Bft) 95,65 %
12.01.2020 10:18 5,7 C 6,1 C 5,0 C 88 % 1022,4 hPa 0,0 l/m 0 min 0 min 74 W/m 22,5 km/h (4 Bft) 97,87 %
12.01.2020 10:20 5,7 C 6,1 C 5,0 C 88 % 1022,5 hPa 0,0 l/m 0 min 0 min 79 W/m 16,1 km/h (3 Bft) 97,87 %
12.01.2020 10:22 5,8 C 6,1 C 5,0 C 88 % 1022,4 hPa 0,0 l/m 0 min 0 min 78 W/m 22,5 km/h (4 Bft) 98,21 %
12.01.2020 10:24 5,8 C 6,1 C 5,0 C 88 % 1022,4 hPa 0,0 l/m 0 min 0 min 68 W/m 29,0 km/h (5 Bft) 97,37 %
12.01.2020 10:26 5,8 C 6,1 C 5,0 C 87 % 1022,3 hPa 0,0 l/m 0 min 0 min 60 W/m 19,3 km/h (3 Bft) 97,87 %
12.01.2020 10:28 5,9 C 6,1 C 5,0 C 87 % 1022,2 hPa 0,0 l/m 0 min 0 min 65 W/m 29,0 km/h (5 Bft) 96,36 %
12.01.2020 10:30 5,9 C 6,1 C 5,0 C 87 % 1022,2 hPa 0,0 l/m 0 min 0 min 71 W/m 22,5 km/h (4 Bft) 94,74 %
12.01.2020 10:32 5,9 C 6,1 C 5,0 C 87 % 1022,2 hPa 0,0 l/m 0 min 0 min 79 W/m 16,1 km/h (3 Bft) 97,87 %
12.01.2020 10:34 6,0 C 6,1 C 5,6 C 87 % 1022,1 hPa 0,0 l/m 0 min 0 min 79 W/m 22,5 km/h (4 Bft) 97,87 %
12.01.2020 10:36 6,0 C 6,1 C 5,6 C 88 % 1022,1 hPa 0,0 l/m 0 min 0 min 67 W/m 25,7 km/h (4 Bft) 96,36 %
12.01.2020 10:38 6,1 C 6,1 C 5,6 C 87 % 1022,2 hPa 0,0 l/m 0 min 0 min 74 W/m 22,5 km/h (4 Bft) 100,00 %
12.01.2020 10:40 6,1 C 6,1 C 5,6 C 87 % 1022,2 hPa 0,0 l/m 0 min 0 min 70 W/m 16,1 km/h (3 Bft) 97,83 %
12.01.2020 10:42 6,1 C 6,1 C 5,6 C 87 % 1022,2 hPa 0,0 l/m 0 min 0 min 70 W/m 25,7 km/h (4 Bft) 96,43 %
12.01.2020 10:44 6,2 C 6,1 C 5,6 C 87 % 1022,1 hPa 0,0 l/m 0 min 0 min 69 W/m 32,2 km/h (5 Bft) 97,37 %
12.01.2020 10:46 6,2 C 6,1 C 5,6 C 87 % 1022,2 hPa 0,0 l/m 0 min 0 min 67 W/m 29,0 km/h (5 Bft) 95,74 %
12.01.2020 10:48 6,3 C 6,1 C 5,6 C 87 % 1022,2 hPa 0,0 l/m 0 min 0 min 64 W/m 22,5 km/h (4 Bft) 96,36 %
12.01.2020 10:50 6,3 C 6,1 C 5,6 C 87 % 1022,2 hPa 0,0 l/m 0 min 0 min 65 W/m 29,0 km/h (5 Bft) 97,44 %
12.01.2020 10:52 6,3 C 6,7 C 5,6 C 87 % 1022,1 hPa 0,0 l/m 0 min 0 min 63 W/m 16,1 km/h (3 Bft) 97,83 %
12.01.2020 10:54 6,4 C 6,7 C 5,6 C 87 % 1022,1 hPa 0,0 l/m 0 min 0 min 68 W/m 16,1 km/h (3 Bft) 98,21 %
12.01.2020 10:56 6,4 C 6,7 C 6,1 C 87 % 1022,2 hPa 0,0 l/m 0 min 0 min 74 W/m 16,1 km/h (3 Bft) 100,00 %
12.01.2020 10:58 6,4 C 6,7 C 6,1 C 87 % 1022,2 hPa 0,0 l/m 0 min 0 min 74 W/m 16,1 km/h (3 Bft) 100,00 %
12.01.2020 11:00 6,5 C 6,7 C 6,1 C 87 % 1022,2 hPa 0,0 l/m 0 min 0 min 75 W/m 22,5 km/h (4 Bft) 100,00 %
12.01.2020 11:02 6,6 C 6,7 C 6,1 C 87 % 1022,2 hPa 0,0 l/m 0 min 0 min 77 W/m 25,7 km/h (4 Bft) 100,00 %
12.01.2020 11:04 6,6 C 6,7 C 6,1 C 87 % 1022,2 hPa 0,0 l/m 0 min 0 min 83 W/m 25,7 km/h (4 Bft) 100,00 %
12.01.2020 11:06 6,7 C 6,7 C 6,1 C 87 % 1022,1 hPa 0,0 l/m 0 min 0 min 92 W/m 16,1 km/h (3 Bft) 98,21 %
12.01.2020 11:08 6,7 C 7,2 C 6,1 C 86 % 1022,2 hPa 0,0 l/m 0 min 0 min 102 W/m 32,2 km/h (5 Bft) 100,00 %
12.01.2020 11:10 6,8 C 7,2 C 6,7 C 86 % 1022,2 hPa 0,0 l/m 0 min 0 min 100 W/m 22,5 km/h (4 Bft) 97,87 %
12.01.2020 11:12 6,8 C 7,2 C 6,7 C 86 % 1022,2 hPa 0,0 l/m 0 min 0 min 87 W/m 12,9 km/h (3 Bft) 100,00 %
12.01.2020 11:14 6,8 C 7,2 C 6,7 C 86 % 1022,2 hPa 0,0 l/m 0 min 0 min 81 W/m 19,3 km/h (3 Bft) 97,37 %
12.01.2020 11:16 6,9 C 7,2 C 6,7 C 86 % 1022,1 hPa 0,0 l/m 0 min 0 min 71 W/m 19,3 km/h (3 Bft) 100,00 %
12.01.2020 11:18 6,9 C 7,2 C 6,7 C 86 % 1022,1 hPa 0,0 l/m 0 min 0 min 82 W/m 22,5 km/h (4 Bft) 100,00 %
12.01.2020 11:20 7,0 C 7,2 C 6,7 C 86 % 1022,0 hPa 0,0 l/m 0 min 0 min 88 W/m 19,3 km/h (3 Bft) 100,00 %
12.01.2020 11:22 7,1 C 7,8 C 6,7 C 86 % 1022,1 hPa 0,0 l/m 0 min 0 min 107 W/m 0,0 km/h (0 Bft) 100,00 %
12.01.2020 11:24 7,1 C 7,8 C 6,7 C 86 % 1022,1 hPa 0,0 l/m 0 min 0 min 117 W/m 0,0 km/h (0 Bft) 100,00 %
12.01.2020 11:26 7,1 C 7,8 C 6,7 C 85 % 1022,0 hPa 0,0 l/m 0 min 0 min 127 W/m 22,5 km/h (4 Bft) 100,00 %
12.01.2020 11:28 7,2 C 7,8 C 6,7 C 86 % 1022,0 hPa 0,0 l/m 0 min 0 min 115 W/m 12,9 km/h (3 Bft) 100,00 %
12.01.2020 11:30 7,2 C 7,8 C 6,7 C 86 % 1022,0 hPa 0,0 l/m 0 min 0 min 110 W/m 22,5 km/h (4 Bft) 97,87 %
12.01.2020 11:32 7,3 C 7,8 C 6,7 C 86 % 1021,9 hPa 0,0 l/m 0 min 0 min 107 W/m 32,2 km/h (5 Bft) 100,00 %
12.01.2020 11:34 7,3 C 7,8 C 7,2 C 85 % 1022,0 hPa 0,0 l/m 0 min 0 min 103 W/m 29,0 km/h (5 Bft) 100,00 %
12.01.2020 11:36 7,4 C 7,8 C 6,7 C 85 % 1021,9 hPa 0,0 l/m 0 min 0 min 97 W/m 38,6 km/h (5 Bft) 100,00 %
12.01.2020 11:38 7,5 C 7,8 C 7,2 C 85 % 1022,0 hPa 0,0 l/m 0 min 0 min 110 W/m 29,0 km/h (5 Bft) 100,00 %
12.01.2020 11:40 7,6 C 7,8 C 7,2 C 85 % 1021,9 hPa 0,0 l/m 0 min 0 min 139 W/m 29,0 km/h (5 Bft) 100,00 %
12.01.2020 11:42 7,6 C 7,8 C 7,2 C 85 % 1021,9 hPa 0,0 l/m 0 min 0 min 150 W/m 29,0 km/h (5 Bft) 100,00 %
12.01.2020 11:44 7,7 C 8,3 C 7,2 C 84 % 1021,8 hPa 0,0 l/m 0 min 0 min 141 W/m 19,3 km/h (3 Bft) 100,00 %
12.01.2020 11:46 7,7 C 8,3 C 7,2 C 84 % 1021,9 hPa 0,0 l/m 0 min 0 min 153 W/m 0,0 km/h (0 Bft) 100,00 %
12.01.2020 11:48 7,7 C 8,3 C 7,2 C 84 % 1021,9 hPa 0,0 l/m 0 min 0 min 116 W/m 19,3 km/h (3 Bft) 100,00 %
12.01.2020 11:50 7,8 C 7,8 C 7,2 C 84 % 1021,9 hPa 0,0 l/m 0 min 0 min 88 W/m 19,3 km/h (3 Bft) 97,83 %
12.01.2020 11:52 7,8 C 7,8 C 7,2 C 84 % 1021,9 hPa 0,0 l/m 0 min 0 min 68 W/m 35,4 km/h (5 Bft) 95,74 %
12.01.2020 11:54 7,9 C 7,8 C 7,2 C 84 % 1021,9 hPa 0,0 l/m 0 min 0 min 58 W/m 29,0 km/h (5 Bft) 96,43 %
12.01.2020 11:56 7,9 C 7,8 C 7,2 C 84 % 1021,8 hPa 0,0 l/m 0 min 0 min 52 W/m 35,4 km/h (5 Bft) 97,37 %
12.01.2020 11:58 7,9 C 7,8 C 7,2 C 84 % 1021,7 hPa 0,0 l/m 0 min 0 min 47 W/m 0,0 km/h (0 Bft) 95,74 %
12.01.2020 12:00 7,9 C 7,2 C 7,2 C 84 % 1021,7 hPa 0,0 l/m 0 min 0 min 32 W/m 0,0 km/h (0 Bft) 98,18 %
12.01.2020 12:02 7,9 C 7,2 C 6,7 C 84 % 1021,7 hPa 0,0 l/m 0 min 0 min 25 W/m 0,0 km/h (0 Bft) 98,00 %
12.01.2020 12:04 7,9 C 7,2 C 6,7 C 84 % 1021,6 hPa 0,0 l/m 0 min 0 min 31 W/m 19,3 km/h (3 Bft) 97,37 %
12.01.2020 12:06 7,9 C 7,2 C 6,7 C 84 % 1021,7 hPa 0,0 l/m 0 min 0 min 30 W/m 3,2 km/h (1 Bft) 96,00 %
12.01.2020 12:08 7,9 C 7,2 C 6,7 C 84 % 1021,6 hPa 0,0 l/m 0 min 0 min 39 W/m 19,3 km/h (3 Bft) 95,74 %
12.01.2020 12:10 7,9 C 7,2 C 6,7 C 84 % 1021,6 hPa 0,0 l/m 0 min 0 min 45 W/m 19,3 km/h (3 Bft) 90,91 %
12.01.2020 12:12 8,0 C 7,8 C 6,7 C 84 % 1021,5 hPa 0,0 l/m 0 min 0 min 47 W/m 12,9 km/h (3 Bft) 93,88 %
12.01.2020 12:14 8,0 C 7,8 C 7,2 C 84 % 1021,5 hPa 0,0 l/m 0 min 0 min 47 W/m 25,7 km/h (4 Bft) 97,87 %
12.01.2020 12:16 8,0 C 7,8 C 6,7 C 84 % 1021,4 hPa 0,0 l/m 0 min 0 min 40 W/m 35,4 km/h (5 Bft) 95,74 %
12.01.2020 12:18 8,0 C 7,8 C 7,2 C 84 % 1021,4 hPa 0,0 l/m 0 min 0 min 35 W/m 22,5 km/h (4 Bft) 95,74 %
12.01.2020 12:20 8,1 C 7,8 C 7,2 C 84 % 1021,3 hPa 0,0 l/m 0 min 0 min 35 W/m 25,7 km/h (4 Bft) 95,45 %
12.01.2020 12:22 8,1 C 7,8 C 7,2 C 84 % 1021,4 hPa 0,0 l/m 0 min 0 min 33 W/m 16,1 km/h (3 Bft) 95,65 %
12.01.2020 12:24 8,1 C 7,8 C 7,2 C 84 % 1021,4 hPa 0,0 l/m 0 min 0 min 30 W/m 6,4 km/h (2 Bft) 96,00 %
12.01.2020 12:26 8,1 C 7,8 C 7,2 C 84 % 1021,4 hPa 0,0 l/m 0 min 0 min 30 W/m 19,3 km/h (3 Bft) 95,74 %
12.01.2020 12:28 8,1 C 7,8 C 7,2 C 84 % 1021,4 hPa 0,0 l/m 0 min 0 min 27 W/m 3,2 km/h (1 Bft) 97,87 %
12.01.2020 12:30 8,1 C 7,8 C 6,7 C 84 % 1021,4 hPa 0,0 l/m 0 min 0 min 26 W/m 3,2 km/h (1 Bft) 97,73 %
12.01.2020 12:32 8,1 C 7,8 C 6,7 C 84 % 1021,3 hPa 0,0 l/m 0 min 0 min 25 W/m 16,1 km/h (3 Bft) 97,87 %
12.01.2020 12:34 8,1 C 7,8 C 6,7 C 84 % 1021,3 hPa 0,0 l/m 0 min 0 min 26 W/m 0,0 km/h (0 Bft) 95,92 %
12.01.2020 12:36 8,1 C 7,8 C 7,2 C 84 % 1021,4 hPa 0,0 l/m 0 min 0 min 26 W/m 32,2 km/h (5 Bft) 95,74 %
12.01.2020 12:38 8,1 C 7,8 C 7,2 C 84 % 1021,3 hPa 0,0 l/m 0 min 0 min 25 W/m 12,9 km/h (3 Bft) 95,45 %
12.01.2020 12:40 8,1 C 7,8 C 7,2 C 84 % 1021,3 hPa 0,0 l/m 0 min 0 min 27 W/m 0,0 km/h (0 Bft) 96,00 %
12.01.2020 12:42 8,2 C 7,8 C 7,2 C 84 % 1021,3 hPa 0,0 l/m 0 min 0 min 28 W/m 9,7 km/h (2 Bft) 95,74 %
12.01.2020 12:44 8,1 C 7,8 C 6,7 C 84 % 1021,2 hPa 0,0 l/m 0 min 0 min 27 W/m 0,0 km/h (0 Bft) 95,45 %
12.01.2020 12:46 8,2 C 7,8 C 6,7 C 84 % 1021,3 hPa 0,0 l/m 0 min 0 min 27 W/m 19,3 km/h (3 Bft) 97,96 %
12.01.2020 12:48 8,2 C 7,8 C 6,7 C 84 % 1021,3 hPa 0,0 l/m 0 min 0 min 26 W/m 0,0 km/h (0 Bft) 97,87 %
12.01.2020 12:50 8,2 C 7,8 C 7,2 C 85 % 1021,3 hPa 0,0 l/m 0 min 0 min 30 W/m 19,3 km/h (3 Bft) 97,87 %
12.01.2020 12:52 8,2 C 7,8 C 7,2 C 85 % 1021,2 hPa 0,0 l/m 0 min 0 min 34 W/m 0,0 km/h (0 Bft) 95,74 %
12.01.2020 12:54 8,2 C 7,8 C 7,2 C 85 % 1021,2 hPa 0,0 l/m 0 min 0 min 33 W/m 0,0 km/h (0 Bft) 97,73 %
12.01.2020 12:56 8,2 C 7,8 C 7,2 C 85 % 1021,2 hPa 0,0 l/m 0 min 0 min 40 W/m 9,7 km/h (2 Bft) 98,00 %
12.01.2020 12:58 8,2 C 7,8 C 7,2 C 85 % 1021,1 hPa 0,0 l/m 0 min 0 min 39 W/m 22,5 km/h (4 Bft) 97,83 %
12.01.2020 13:00 8,2 C 7,8 C 7,2 C 85 % 1021,2 hPa 0,0 l/m 0 min 0 min 44 W/m 3,2 km/h (1 Bft) 97,73 %
12.01.2020 13:02 8,2 C 7,8 C 7,2 C 85 % 1021,1 hPa 0,0 l/m 0 min 0 min 44 W/m 22,5 km/h (4 Bft) 98,00 %
12.01.2020 13:04 8,2 C 7,2 C 6,7 C 85 % 1021,2 hPa 0,0 l/m 0 min 0 min 48 W/m 41,8 km/h (6 Bft) 100,00 %
12.01.2020 13:06 8,2 C 7,2 C 6,7 C 85 % 1021,1 hPa 0,0 l/m 0 min 0 min 47 W/m 25,7 km/h (4 Bft) 100,00 %
12.01.2020 13:08 8,2 C 7,2 C 6,7 C 86 % 1021,0 hPa 0,0 l/m 0 min 0 min 54 W/m 32,2 km/h (5 Bft) 98,21 %
12.01.2020 13:10 8,2 C 7,2 C 6,7 C 86 % 1021,1 hPa 0,0 l/m 0 min 0 min 53 W/m 29,0 km/h (5 Bft) 97,96 %
12.01.2020 13:12 8,2 C 6,7 C 6,1 C 86 % 1021,1 hPa 0,0 l/m 0 min 0 min 51 W/m 38,6 km/h (5 Bft) 95,74 %
12.01.2020 13:14 8,2 C 6,7 C 6,1 C 87 % 1021,0 hPa 0,0 l/m 0 min 0 min 44 W/m 25,7 km/h (4 Bft) 97,14 %
12.01.2020 13:16 8,1 C 6,7 C 6,1 C 87 % 1021,1 hPa 0,0 l/m 0 min 0 min 44 W/m 48,3 km/h (6 Bft) 97,87 %
12.01.2020 13:18 8,1 C 6,7 C 6,1 C 88 % 1021,0 hPa 0,0 l/m 0 min 0 min 44 W/m 25,7 km/h (4 Bft) 96,23 %
12.01.2020 13:20 8,0 C 6,7 C 6,1 C 88 % 1021,0 hPa 0,0 l/m 0 min 0 min 42 W/m 32,2 km/h (5 Bft) 95,65 %
12.01.2020 13:22 7,9 C 6,7 C 6,1 C 88 % 1021,0 hPa 0,0 l/m 0 min 0 min 46 W/m 38,6 km/h (5 Bft) 96,00 %
12.01.2020 13:24 7,9 C 6,7 C 6,1 C 88 % 1021,0 hPa 0,0 l/m 0 min 0 min 44 W/m 25,7 km/h (4 Bft) 96,00 %
12.01.2020 13:26 7,8 C 6,7 C 6,1 C 89 % 1020,9 hPa 0,0 l/m 0 min 0 min 55 W/m 25,7 km/h (4 Bft) 97,87 %
12.01.2020 13:28 7,8 C 6,7 C 6,7 C 89 % 1020,9 hPa 0,0 l/m 0 min 0 min 54 W/m 25,7 km/h (4 Bft) 97,87 %
12.01.2020 13:30 7,8 C 6,7 C 6,7 C 89 % 1020,9 hPa 0,0 l/m 0 min 0 min 53 W/m 29,0 km/h (5 Bft) 97,14 %
12.01.2020 13:32 7,7 C 7,2 C 6,7 C 89 % 1020,9 hPa 0,0 l/m 0 min 0 min 51 W/m 32,2 km/h (5 Bft) 96,36 %
12.01.2020 13:34 7,7 C 7,2 C 6,7 C 90 % 1020,8 hPa 0,0 l/m 0 min 0 min 50 W/m 19,3 km/h (3 Bft) 98,00 %
12.01.2020 13:36 7,7 C 7,2 C 6,7 C 90 % 1020,8 hPa 0,0 l/m 0 min 0 min 51 W/m 29,0 km/h (5 Bft) 97,14 %
12.01.2020 13:38 7,7 C 7,2 C 6,7 C 90 % 1020,8 hPa 0,0 l/m 0 min 0 min 45 W/m 19,3 km/h (3 Bft) 98,21 %
12.01.2020 13:40 7,7 C 7,2 C 6,7 C 90 % 1020,9 hPa 0,0 l/m 0 min 0 min 40 W/m 22,5 km/h (4 Bft) 96,00 %
12.01.2020 13:42 7,7 C 7,2 C 6,7 C 90 % 1020,8 hPa 0,0 l/m 0 min 0 min 44 W/m 32,2 km/h (5 Bft) 94,29 %
12.01.2020 13:44 7,7 C 7,2 C 6,7 C 90 % 1020,9 hPa 0,0 l/m 0 min 0 min 53 W/m 19,3 km/h (3 Bft) 98,18 %
12.01.2020 13:46 7,6 C 7,2 C 6,7 C 91 % 1020,8 hPa 0,0 l/m 0 min 0 min 63 W/m 35,4 km/h (5 Bft) 98,00 %
12.01.2020 13:48 7,6 C 6,7 C 6,1 C 91 % 1020,8 hPa 0,0 l/m 0 min 2 min 59 W/m 29,0 km/h (5 Bft) 97,14 %
12.01.2020 13:50 7,6 C 6,1 C 6,1 C 91 % 1020,8 hPa 0,0 l/m 0 min 2 min 58 W/m 25,7 km/h (4 Bft) 96,43 %
12.01.2020 13:52 7,6 C 6,1 C 5,6 C 91 % 1020,8 hPa 0,0 l/m 0 min 2 min 57 W/m 45,1 km/h (6 Bft) 97,87 %
12.01.2020 13:54 7,6 C 6,1 C 5,6 C 91 % 1020,8 hPa 0,0 l/m 0 min 2 min 46 W/m 25,7 km/h (4 Bft) 93,88 %
12.01.2020 13:56 7,6 C 6,1 C 5,6 C 92 % 1020,8 hPa 0,0 l/m 0 min 2 min 44 W/m 29,0 km/h (5 Bft) 100,00 %
12.01.2020 13:58 7,6 C 6,1 C 5,6 C 92 % 1020,8 hPa 0,0 l/m 0 min 2 min 39 W/m 22,5 km/h (4 Bft) 94,55 %
12.01.2020 14:00 7,6 C 6,1 C 5,6 C 92 % 1020,8 hPa 0,0 l/m 0 min 2 min 33 W/m 25,7 km/h (4 Bft) 98,00 %
12.01.2020 14:02 7,6 C 6,1 C 5,6 C 92 % 1020,8 hPa 0,0 l/m 0 min 2 min 34 W/m 0,0 km/h (0 Bft) 97,14 %
12.01.2020 14:04 7,6 C 6,1 C 5,6 C 92 % 1020,8 hPa 0,0 l/m 0 min 2 min 33 W/m 19,3 km/h (3 Bft) 96,43 %
12.01.2020 14:06 7,5 C 6,1 C 5,6 C 93 % 1020,8 hPa 0,0 l/m 0 min 2 min 33 W/m 19,3 km/h (3 Bft) 97,96 %
12.01.2020 14:08 7,5 C 6,1 C 5,6 C 93 % 1020,8 hPa 0,0 l/m 0 min 2 min 24 W/m 22,5 km/h (4 Bft) 100,00 %
12.01.2020 14:10 7,4 C 6,1 C 5,6 C 93 % 1020,8 hPa 0,2 l/m 0 min 2 min 24 W/m 35,4 km/h (5 Bft) 98,08 %
12.01.2020 14:12 7,4 C 6,1 C 5,6 C 93 % 1020,8 hPa 0,0 l/m 0 min 2 min 21 W/m 6,4 km/h (2 Bft) 98,00 %
12.01.2020 14:14 7,4 C 5,6 C 5,6 C 93 % 1020,8 hPa 0,0 l/m 0 min 0 min 20 W/m 16,1 km/h (3 Bft) 100,00 %
12.01.2020 14:16 7,4 C 5,6 C 5,6 C 94 % 1020,8 hPa 0,0 l/m 0 min 0 min 20 W/m 22,5 km/h (4 Bft) 100,00 %
12.01.2020 14:18 7,3 C 6,1 C 5,6 C 94 % 1020,8 hPa 0,0 l/m 0 min 0 min 19 W/m 0,0 km/h (0 Bft) 100,00 %
12.01.2020 14:20 7,3 C 5,6 C 5,6 C 94 % 1020,7 hPa 0,0 l/m 0 min 0 min 16 W/m 16,1 km/h (3 Bft) 97,96 %
12.01.2020 14:22 7,3 C 6,1 C 5,6 C 94 % 1020,7 hPa 0,0 l/m 0 min 0 min 18 W/m 22,5 km/h (4 Bft) 97,87 %
12.01.2020 14:24 7,3 C 6,1 C 5,6 C 94 % 1020,6 hPa 0,0 l/m 0 min 0 min 24 W/m 32,2 km/h (5 Bft) 95,74 %
12.01.2020 14:26 7,3 C 6,1 C 5,6 C 94 % 1020,6 hPa 0,0 l/m 0 min 0 min 19 W/m 29,0 km/h (5 Bft) 96,00 %
12.01.2020 14:28 7,2 C 6,1 C 5,6 C 94 % 1020,6 hPa 0,0 l/m 0 min 0 min 19 W/m 22,5 km/h (4 Bft) 94,29 %
12.01.2020 14:30 7,2 C 6,1 C 5,6 C 94 % 1020,6 hPa 0,0 l/m 0 min 0 min 19 W/m 25,7 km/h (4 Bft) 96,36 %
12.01.2020 14:32 7,2 C 6,1 C 5,6 C 95 % 1020,6 hPa 0,0 l/m 0 min 0 min 17 W/m 25,7 km/h (4 Bft) 98,00 %
12.01.2020 14:34 7,2 C 6,1 C 5,6 C 95 % 1020,6 hPa 0,0 l/m 0 min 0 min 16 W/m 22,5 km/h (4 Bft) 97,87 %
12.01.2020 14:36 7,2 C 6,1 C 5,6 C 95 % 1020,7 hPa 0,0 l/m 0 min 0 min 14 W/m 35,4 km/h (5 Bft) 97,87 %
12.01.2020 14:38 7,2 C 6,1 C 5,6 C 95 % 1020,6 hPa 0,0 l/m 0 min 0 min 15 W/m 25,7 km/h (4 Bft) 97,14 %
12.01.2020 14:40 7,2 C 6,1 C 5,6 C 95 % 1020,6 hPa 0,0 l/m 0 min 0 min 20 W/m 38,6 km/h (5 Bft) 98,11 %
12.01.2020 14:42 7,2 C 6,1 C 5,6 C 95 % 1020,6 hPa 0,0 l/m 0 min 0 min 16 W/m 35,4 km/h (5 Bft) 97,96 %
12.01.2020 14:44 7,2 C 6,1 C 5,6 C 95 % 1020,6 hPa 0,0 l/m 0 min 0 min 14 W/m 32,2 km/h (5 Bft) 98,00 %
12.01.2020 14:46 7,2 C 6,1 C 5,6 C 95 % 1020,6 hPa 0,0 l/m 0 min 0 min 14 W/m 19,3 km/h (3 Bft) 97,14 %
12.01.2020 14:48 7,2 C 6,1 C 5,6 C 95 % 1020,6 hPa 0,0 l/m 0 min 0 min 14 W/m 22,5 km/h (4 Bft) 94,34 %
12.01.2020 14:50 7,2 C 6,1 C 5,6 C 95 % 1020,7 hPa 0,0 l/m 0 min 0 min 13 W/m 6,4 km/h (2 Bft) 98,00 %
12.01.2020 14:52 7,2 C 6,1 C 5,6 C 95 % 1020,7 hPa 0,0 l/m 0 min 0 min 12 W/m 22,5 km/h (4 Bft) 97,96 %
12.01.2020 14:54 7,2 C 6,1 C 5,6 C 95 % 1020,7 hPa 0,0 l/m 0 min 0 min 13 W/m 3,2 km/h (1 Bft) 97,22 %
12.01.2020 14:56 7,2 C 6,1 C 5,6 C 96 % 1020,7 hPa 0,0 l/m 0 min 0 min 14 W/m 19,3 km/h (3 Bft) 96,36 %
12.01.2020 14:58 7,2 C 6,1 C 5,6 C 96 % 1020,7 hPa 0,0 l/m 0 min 0 min 15 W/m 25,7 km/h (4 Bft) 98,00 %
12.01.2020 15:00 7,2 C 6,1 C 5,6 C 96 % 1020,8 hPa 0,0 l/m 0 min 0 min 15 W/m 19,3 km/h (3 Bft) 97,37 %
12.01.2020 15:02 7,2 C 6,1 C 5,6 C 96 % 1020,8 hPa 0,0 l/m 0 min 0 min 12 W/m 12,9 km/h (3 Bft) 95,74 %
12.01.2020 15:04 7,2 C 6,1 C 5,6 C 96 % 1020,8 hPa 0,0 l/m 0 min 0 min 11 W/m 19,3 km/h (3 Bft) 97,87 %
12.01.2020 15:06 7,2 C 6,1 C 5,6 C 96 % 1020,8 hPa 0,0 l/m 0 min 0 min 10 W/m 16,1 km/h (3 Bft) 94,55 %
12.01.2020 15:08 7,2 C 6,1 C 5,6 C 96 % 1020,8 hPa 0,0 l/m 0 min 0 min 13 W/m 29,0 km/h (5 Bft) 100,00 %
12.01.2020 15:10 7,2 C 6,1 C 6,1 C 96 % 1020,7 hPa 0,0 l/m 0 min 0 min 14 W/m 38,6 km/h (5 Bft) 97,87 %
12.01.2020 15:12 7,3 C 6,1 C 6,1 C 96 % 1020,8 hPa 0,0 l/m 0 min 0 min 10 W/m 32,2 km/h (5 Bft) 100,00 %
12.01.2020 15:14 7,3 C 6,7 C 6,1 C 96 % 1020,7 hPa 0,0 l/m 0 min 0 min 10 W/m 35,4 km/h (5 Bft) 100,00 %
12.01.2020 15:16 7,3 C 6,7 C 6,1 C 96 % 1020,8 hPa 0,0 l/m 0 min 0 min 13 W/m 12,9 km/h (3 Bft) 100,00 %
12.01.2020 15:18 7,3 C 6,1 C 6,1 C 96 % 1020,8 hPa 0,0 l/m 0 min 0 min 16 W/m 25,7 km/h (4 Bft) 100,00 %
12.01.2020 15:20 7,3 C 6,7 C 6,1 C 96 % 1020,8 hPa 0,0 l/m 0 min 0 min 20 W/m 22,5 km/h (4 Bft) 97,87 %
12.01.2020 15:22 7,3 C 6,7 C 6,1 C 96 % 1020,8 hPa 0,0 l/m 0 min 0 min 16 W/m 32,2 km/h (5 Bft) 100,00 %
12.01.2020 15:24 7,3 C 6,7 C 6,1 C 96 % 1020,8 hPa 0,0 l/m 0 min 0 min 13 W/m 22,5 km/h (4 Bft) 98,21 %
12.01.2020 15:26 7,3 C 6,7 C 6,1 C 96 % 1020,8 hPa 0,0 l/m 0 min 0 min 14 W/m 22,5 km/h (4 Bft) 100,00 %
12.01.2020 15:28 7,3 C 6,7 C 6,1 C 96 % 1020,7 hPa 0,0 l/m 0 min 0 min 22 W/m 35,4 km/h (5 Bft) 100,00 %
12.01.2020 15:30 7,3 C 6,7 C 6,1 C 96 % 1020,7 hPa 0,0 l/m 0 min 0 min 18 W/m 19,3 km/h (3 Bft) 98,18 %
12.01.2020 15:32 7,4 C 6,7 C 6,1 C 96 % 1020,8 hPa 0,0 l/m 0 min 0 min 14 W/m 29,0 km/h (5 Bft) 100,00 %
12.01.2020 15:34 7,4 C 6,7 C 6,1 C 96 % 1020,8 hPa 0,0 l/m 0 min 0 min 12 W/m 22,5 km/h (4 Bft) 57,45 %
12.01.2020 15:36 7,4 C 6,7 C 6,1 C 96 % 1020,9 hPa 0,0 l/m 0 min 0 min 12 W/m 12,9 km/h (3 Bft) 96,15 %
12.01.2020 15:38 7,4 C 6,7 C 6,1 C 96 % 1020,9 hPa 0,0 l/m 0 min 0 min 15 W/m 19,3 km/h (3 Bft) 97,83 %
12.01.2020 15:40 7,4 C 6,7 C 6,1 C 95 % 1020,8 hPa 0,0 l/m 0 min 0 min 19 W/m 22,5 km/h (4 Bft) 97,44 %
12.01.2020 15:42 7,4 C 6,7 C 6,1 C 95 % 1020,9 hPa 0,0 l/m 0 min 0 min 15 W/m 19,3 km/h (3 Bft) 97,83 %
12.01.2020 15:44 7,4 C 6,7 C 6,1 C 95 % 1020,9 hPa 0,0 l/m 0 min 0 min 14 W/m 12,9 km/h (3 Bft) 96,43 %
12.01.2020 15:46 7,4 C 6,7 C 6,1 C 95 % 1020,8 hPa 0,0 l/m 0 min 0 min 15 W/m 32,2 km/h (5 Bft) 97,87 %
12.01.2020 15:48 7,4 C 6,7 C 6,1 C 95 % 1020,9 hPa 0,0 l/m 0 min 0 min 13 W/m 19,3 km/h (3 Bft) 97,87 %
12.01.2020 15:50 7,5 C 6,7 C 6,1 C 95 % 1020,8 hPa 0,0 l/m 0 min 0 min 15 W/m 3,2 km/h (1 Bft) 97,83 %
12.01.2020 15:52 7,5 C 6,7 C 6,1 C 95 % 1020,9 hPa 0,0 l/m 0 min 0 min 13 W/m 0,0 km/h (0 Bft) 97,44 %
12.01.2020 15:54 7,5 C 6,7 C 6,1 C 95 % 1020,9 hPa 0,0 l/m 0 min 0 min 13 W/m 22,5 km/h (4 Bft) 95,65 %
12.01.2020 15:56 7,6 C 6,7 C 6,1 C 95 % 1020,9 hPa 0,0 l/m 0 min 0 min 14 W/m 16,1 km/h (3 Bft) 95,74 %
12.01.2020 15:58 7,6 C 6,7 C 6,1 C 95 % 1020,9 hPa 0,0 l/m 0 min 0 min 14 W/m 16,1 km/h (3 Bft) 97,87 %
12.01.2020 16:00 7,6 C 6,7 C 6,1 C 95 % 1020,9 hPa 0,0 l/m 0 min 0 min 14 W/m 22,5 km/h (4 Bft) 98,21 %
12.01.2020 16:02 7,6 C 6,7 C 6,1 C 95 % 1020,8 hPa 0,0 l/m 0 min 0 min 14 W/m 35,4 km/h (5 Bft) 95,65 %
12.01.2020 16:04 7,6 C 6,7 C 6,1 C 95 % 1020,8 hPa 0,0 l/m 0 min 0 min 11 W/m 32,2 km/h (5 Bft) 95,74 %
12.01.2020 16:06 7,6 C 6,7 C 6,1 C 95 % 1020,9 hPa 0,0 l/m 0 min 0 min 12 W/m 19,3 km/h (3 Bft) 97,37 %
12.01.2020 16:08 7,6 C 6,7 C 6,1 C 95 % 1020,8 hPa 0,0 l/m 0 min 0 min 13 W/m 0,0 km/h (0 Bft) 95,74 %
12.01.2020 16:10 7,6 C 6,7 C 6,1 C 95 % 1020,9 hPa 0,0 l/m 0 min 0 min 11 W/m 16,1 km/h (3 Bft) 94,64 %
12.01.2020 16:12 7,6 C 6,7 C 6,1 C 95 % 1020,9 hPa 0,0 l/m 0 min 0 min 9 W/m 25,7 km/h (4 Bft) 94,74 %
12.01.2020 16:14 7,7 C 6,7 C 6,1 C 95 % 1020,9 hPa 0,0 l/m 0 min 0 min 7 W/m 12,9 km/h (3 Bft) 93,62 %
12.01.2020 16:16 7,7 C 6,7 C 6,1 C 95 % 1021,0 hPa 0,0 l/m 0 min 0 min 6 W/m 19,3 km/h (3 Bft) 96,36 %
12.01.2020 16:18 7,7 C 6,7 C 6,1 C 95 % 1021,0 hPa 0,0 l/m 0 min 0 min 7 W/m 25,7 km/h (4 Bft) 94,74 %
12.01.2020 16:20 7,7 C 6,7 C 6,1 C 95 % 1021,0 hPa 0,0 l/m 0 min 0 min 7 W/m 6,4 km/h (2 Bft) 93,62 %
12.01.2020 16:22 7,7 C 6,7 C 6,1 C 95 % 1021,1 hPa 0,0 l/m 0 min 0 min 6 W/m 16,1 km/h (3 Bft) 94,64 %
12.01.2020 16:24 7,7 C 7,2 C 6,1 C 94 % 1021,1 hPa 0,0 l/m 0 min 0 min 6 W/m 16,1 km/h (3 Bft) 95,74 %
12.01.2020 16:26 7,7 C 7,2 C 6,1 C 94 % 1021,1 hPa 0,0 l/m 0 min 0 min 3 W/m 19,3 km/h (3 Bft) 94,74 %
12.01.2020 16:28 7,8 C 7,2 C 6,1 C 94 % 1021,1 hPa 0,0 l/m 0 min 0 min 5 W/m 22,5 km/h (4 Bft) 95,65 %
12.01.2020 16:30 7,8 C 7,2 C 6,1 C 94 % 1021,2 hPa 0,0 l/m 0 min 0 min 5 W/m 32,2 km/h (5 Bft) 91,49 %
12.01.2020 16:32 7,8 C 7,2 C 6,1 C 94 % 1021,1 hPa 0,0 l/m 0 min 0 min 6 W/m 25,7 km/h (4 Bft) 96,43 %
12.01.2020 16:34 7,8 C 7,2 C 6,1 C 94 % 1021,1 hPa 0,0 l/m 0 min 0 min 7 W/m 16,1 km/h (3 Bft) 94,74 %
12.01.2020 16:36 7,8 C 7,2 C 6,1 C 94 % 1021,1 hPa 0,0 l/m 0 min 0 min 5 W/m 22,5 km/h (4 Bft) 97,87 %
12.01.2020 16:38 7,8 C 7,2 C 6,1 C 94 % 1021,1 hPa 0,0 l/m 0 min 0 min 5 W/m 22,5 km/h (4 Bft) 98,18 %
12.01.2020 16:42 7,8 C 7,2 C 6,7 C 94 % 1021,1 hPa 0,0 l/m 0 min 0 min 0 W/m 22,5 km/h (4 Bft) 96,00 %
12.01.2020 16:44 7,8 C 7,2 C 6,7 C 94 % 1021,1 hPa 0,0 l/m 0 min 0 min 0 W/m 16,1 km/h (3 Bft) 95,74 %
12.01.2020 16:46 7,8 C 7,2 C 6,7 C 94 % 1021,1 hPa 0,0 l/m 0 min 0 min 0 W/m 29,0 km/h (5 Bft) 97,87 %
12.01.2020 16:48 7,8 C 7,2 C 6,7 C 94 % 1021,2 hPa 0,0 l/m 0 min 0 min 0 W/m 25,7 km/h (4 Bft) 93,48 %
12.01.2020 16:50 7,9 C 7,2 C 6,7 C 94 % 1021,2 hPa 0,0 l/m 0 min 0 min 0 W/m 25,7 km/h (4 Bft) 97,87 %
12.01.2020 16:52 7,9 C 7,2 C 6,7 C 94 % 1021,3 hPa 0,0 l/m 0 min 0 min 0 W/m 25,7 km/h (4 Bft) 97,87 %
12.01.2020 16:54 7,9 C 7,2 C 6,7 C 93 % 1021,2 hPa 0,0 l/m 0 min 0 min 0 W/m 19,3 km/h (3 Bft) 97,87 %
12.01.2020 16:56 7,9 C 7,2 C 6,7 C 93 % 1021,3 hPa 0,0 l/m 0 min 0 min 0 W/m 35,4 km/h (5 Bft) 100,00 %
12.01.2020 16:58 7,9 C 7,2 C 6,7 C 93 % 1021,3 hPa 0,0 l/m 0 min 0 min 0 W/m 29,0 km/h (5 Bft) 100,00 %
12.01.2020 17:00 7,9 C 7,2 C 6,7 C 93 % 1021,3 hPa 0,0 l/m 0 min 0 min 0 W/m 19,3 km/h (3 Bft) 100,00 %
12.01.2020 17:02 7,9 C 7,2 C 6,7 C 93 % 1021,3 hPa 0,0 l/m 0 min 0 min 0 W/m 22,5 km/h (4 Bft) 95,74 %
12.01.2020 17:04 8,0 C 7,2 C 6,7 C 93 % 1021,2 hPa 0,0 l/m 0 min 0 min 0 W/m 41,8 km/h (6 Bft) 97,87 %
12.01.2020 17:06 8,0 C 7,2 C 6,7 C 93 % 1021,3 hPa 0,0 l/m 0 min 0 min 0 W/m 25,7 km/h (4 Bft) 97,87 %
12.01.2020 17:08 8,0 C 7,2 C 6,7 C 93 % 1021,2 hPa 0,0 l/m 0 min 0 min 0 W/m 29,0 km/h (5 Bft) 97,87 %
12.01.2020 17:10 8,0 C 7,2 C 6,7 C 93 % 1021,3 hPa 0,0 l/m 0 min 0 min 0 W/m 22,5 km/h (4 Bft) 97,87 %
12.01.2020 17:12 8,0 C 7,2 C 6,1 C 93 % 1021,2 hPa 0,0 l/m 0 min 0 min 0 W/m 25,7 km/h (4 Bft) 97,83 %
12.01.2020 17:14 8,0 C 7,2 C 6,1 C 93 % 1021,3 hPa 0,0 l/m 0 min 0 min 0 W/m 25,7 km/h (4 Bft) 97,87 %
12.01.2020 17:16 8,0 C 7,2 C 6,1 C 93 % 1021,3 hPa 0,0 l/m 0 min 0 min 0 W/m 19,3 km/h (3 Bft) 97,87 %
12.01.2020 17:18 8,0 C 7,2 C 6,1 C 93 % 1021,3 hPa 0,0 l/m 0 min 0 min 0 W/m 25,7 km/h (4 Bft) 97,87 %
12.01.2020 17:20 8,0 C 7,2 C 6,7 C 93 % 1021,3 hPa 0,0 l/m 0 min 0 min 0 W/m 29,0 km/h (5 Bft) 95,74 %
12.01.2020 17:22 8,0 C 7,2 C 6,7 C 93 % 1021,3 hPa 0,0 l/m 0 min 0 min 0 W/m 22,5 km/h (4 Bft) 95,65 %
12.01.2020 17:24 8,0 C 7,2 C 6,7 C 93 % 1021,4 hPa 0,0 l/m 0 min 0 min 0 W/m 25,7 km/h (4 Bft) 97,87 %
12.01.2020 17:26 8,0 C 7,2 C 6,7 C 93 % 1021,4 hPa 0,0 l/m 0 min 0 min 0 W/m 29,0 km/h (5 Bft) 97,87 %
12.01.2020 17:28 8,0 C 7,2 C 6,7 C 93 % 1021,4 hPa 0,0 l/m 0 min 0 min 0 W/m 25,7 km/h (4 Bft) 97,87 %
12.01.2020 17:30 8,0 C 7,2 C 6,7 C 93 % 1021,4 hPa 0,0 l/m 0 min 0 min 0 W/m 32,2 km/h (5 Bft) 95,74 %
12.01.2020 17:32 8,0 C 7,2 C 6,7 C 93 % 1021,5 hPa 0,0 l/m 0 min 0 min 0 W/m 32,2 km/h (5 Bft) 97,87 %
12.01.2020 17:34 8,1 C 7,2 C 6,7 C 93 % 1021,5 hPa 0,0 l/m 0 min 0 min 0 W/m 22,5 km/h (4 Bft) 97,83 %
12.01.2020 17:36 8,1 C 7,2 C 6,7 C 93 % 1021,6 hPa 0,0 l/m 0 min 0 min 0 W/m 29,0 km/h (5 Bft) 97,87 %
12.01.2020 17:38 8,1 C 7,2 C 6,7 C 93 % 1021,5 hPa 0,0 l/m 0 min 0 min 0 W/m 35,4 km/h (5 Bft) 95,74 %
12.01.2020 17:40 8,1 C 7,2 C 6,7 C 93 % 1021,6 hPa 0,0 l/m 0 min 0 min 0 W/m 32,2 km/h (5 Bft) 97,87 %
12.01.2020 17:42 8,1 C 7,2 C 6,7 C 93 % 1021,6 hPa 0,0 l/m 0 min 0 min 0 W/m 22,5 km/h (4 Bft) 97,87 %
12.01.2020 17:44 8,1 C 7,2 C 6,7 C 93 % 1021,6 hPa 0,0 l/m 0 min 0 min 0 W/m 32,2 km/h (5 Bft) 97,87 %
12.01.2020 17:46 8,1 C 7,2 C 6,7 C 93 % 1021,6 hPa 0,0 l/m 0 min 0 min 0 W/m 25,7 km/h (4 Bft) 100,00 %
12.01.2020 17:48 8,1 C 7,2 C 6,7 C 93 % 1021,6 hPa 0,0 l/m 0 min 0 min 0 W/m 29,0 km/h (5 Bft) 100,00 %
12.01.2020 17:50 8,1 C 7,2 C 6,7 C 93 % 1021,7 hPa 0,0 l/m 0 min 0 min 0 W/m 29,0 km/h (5 Bft) 97,87 %
12.01.2020 17:52 8,1 C 7,2 C 6,7 C 92 % 1021,7 hPa 0,0 l/m 0 min 0 min 0 W/m 19,3 km/h (3 Bft) 95,74 %
12.01.2020 17:54 8,1 C 7,2 C 6,7 C 92 % 1021,6 hPa 0,0 l/m 0 min 0 min 0 W/m 32,2 km/h (5 Bft) 100,00 %
12.01.2020 17:56 8,1 C 7,2 C 6,7 C 92 % 1021,5 hPa 0,0 l/m 0 min 0 min 0 W/m 22,5 km/h (4 Bft) 100,00 %
12.01.2020 17:58 8,1 C 7,2 C 6,7 C 92 % 1021,6 hPa 0,0 l/m 0 min 0 min 0 W/m 32,2 km/h (5 Bft) 100,00 %
12.01.2020 18:00 8,1 C 7,2 C 6,7 C 92 % 1021,6 hPa 0,0 l/m 0 min 0 min 0 W/m 29,0 km/h (5 Bft) 97,87 %
12.01.2020 18:02 8,1 C 7,2 C 6,7 C 92 % 1021,7 hPa 0,0 l/m 0 min 0 min 0 W/m 16,1 km/h (3 Bft) 97,87 %
12.01.2020 18:04 8,1 C 7,2 C 6,7 C 92 % 1021,7 hPa 0,0 l/m 0 min 0 min 0 W/m 25,7 km/h (4 Bft) 97,87 %
12.01.2020 18:06 8,1 C 7,2 C 6,7 C 92 % 1021,7 hPa 0,0 l/m 0 min 0 min 0 W/m 38,6 km/h (5 Bft) 100,00 %
12.01.2020 18:08 8,1 C 7,2 C 6,7 C 92 % 1021,7 hPa 0,0 l/m 0 min 0 min 0 W/m 35,4 km/h (5 Bft) 100,00 %
12.01.2020 18:10 8,1 C 7,8 C 6,7 C 92 % 1021,7 hPa 0,0 l/m 0 min 0 min 0 W/m 25,7 km/h (4 Bft) 100,00 %
12.01.2020 18:12 8,1 C 7,2 C 6,7 C 92 % 1021,8 hPa 0,0 l/m 0 min 0 min 0 W/m 25,7 km/h (4 Bft) 97,87 %
12.01.2020 18:14 8,1 C 7,2 C 6,7 C 92 % 1021,7 hPa 0,0 l/m 0 min 2 min 0 W/m 29,0 km/h (5 Bft) 100,00 %
12.01.2020 18:16 8,1 C 7,8 C 6,7 C 92 % 1021,7 hPa 0,0 l/m 0 min 0 min 0 W/m 32,2 km/h (5 Bft) 100,00 %
12.01.2020 18:18 8,1 C 7,8 C 7,2 C 92 % 1021,7 hPa 0,0 l/m 0 min 0 min 0 W/m 32,2 km/h (5 Bft) 100,00 %
12.01.2020 18:20 8,2 C 7,8 C 7,2 C 92 % 1021,6 hPa 0,0 l/m 0 min 0 min 0 W/m 38,6 km/h (5 Bft) 97,83 %
12.01.2020 18:22 8,2 C 7,8 C 7,2 C 92 % 1021,6 hPa 0,0 l/m 0 min 0 min 0 W/m 38,6 km/h (5 Bft) 100,00 %
12.01.2020 18:24 8,2 C 7,8 C 6,7 C 92 % 1021,6 hPa 0,0 l/m 0 min 0 min 0 W/m 25,7 km/h (4 Bft) 100,00 %
12.01.2020 18:26 8,2 C 7,2 C 6,7 C 92 % 1021,7 hPa 0,0 l/m 0 min 0 min 0 W/m 35,4 km/h (5 Bft) 100,00 %
12.01.2020 18:28 8,2 C 7,2 C 6,7 C 92 % 1021,7 hPa 0,0 l/m 0 min 0 min 0 W/m 32,2 km/h (5 Bft) 100,00 %
12.01.2020 18:30 8,2 C 7,2 C 6,7 C 92 % 1021,7 hPa 0,0 l/m 0 min 0 min 0 W/m 25,7 km/h (4 Bft) 100,00 %
12.01.2020 18:32 8,1 C 7,2 C 6,7 C 92 % 1021,7 hPa 0,0 l/m 0 min 0 min 0 W/m 32,2 km/h (5 Bft) 100,00 %
12.01.2020 18:34 8,1 C 7,2 C 6,7 C 92 % 1021,8 hPa 0,0 l/m 0 min 0 min 0 W/m 22,5 km/h (4 Bft) 97,87 %
12.01.2020 18:36 8,1 C 7,2 C 6,7 C 92 % 1021,8 hPa 0,0 l/m 0 min 0 min 0 W/m 29,0 km/h (5 Bft) 100,00 %
12.01.2020 18:38 8,1 C 7,2 C 6,7 C 92 % 1021,7 hPa 0,0 l/m 0 min 0 min 0 W/m 35,4 km/h (5 Bft) 100,00 %
12.01.2020 18:40 8,1 C 7,2 C 6,7 C 92 % 1021,7 hPa 0,0 l/m 0 min 0 min 0 W/m 19,3 km/h (3 Bft) 97,87 %
12.01.2020 18:42 8,1 C 7,2 C 6,7 C 92 % 1021,8 hPa 0,0 l/m 0 min 0 min 0 W/m 29,0 km/h (5 Bft) 97,87 %
12.01.2020 18:44 8,1 C 7,8 C 6,7 C 92 % 1021,8 hPa 0,0 l/m 0 min 0 min 0 W/m 22,5 km/h (4 Bft) 100,00 %
12.01.2020 18:46 8,1 C 7,8 C 6,7 C 92 % 1021,8 hPa 0,0 l/m 0 min 0 min 0 W/m 25,7 km/h (4 Bft) 100,00 %
12.01.2020 18:48 8,1 C 7,8 C 6,7 C 92 % 1021,8 hPa 0,0 l/m 0 min 0 min 0 W/m 25,7 km/h (4 Bft) 100,00 %
12.01.2020 18:50 8,2 C 7,8 C 7,2 C 92 % 1021,8 hPa 0,0 l/m 0 min 0 min 0 W/m 22,5 km/h (4 Bft) 97,87 %
12.01.2020 18:52 8,2 C 7,8 C 7,2 C 92 % 1021,7 hPa 0,0 l/m 0 min 0 min 0 W/m 25,7 km/h (4 Bft) 100,00 %
12.01.2020 18:54 8,2 C 7,8 C 7,2 C 92 % 1021,7 hPa 0,0 l/m 0 min 0 min 0 W/m 29,0 km/h (5 Bft) 97,87 %
12.01.2020 18:56 8,2 C 7,8 C 7,2 C 92 % 1021,7 hPa 0,0 l/m 0 min 0 min 0 W/m 32,2 km/h (5 Bft) 95,65 %
12.01.2020 18:58 8,2 C 7,8 C 7,2 C 92 % 1021,8 hPa 0,0 l/m 0 min 0 min 0 W/m 29,0 km/h (5 Bft) 95,74 %
12.01.2020 19:00 8,2 C 7,8 C 6,7 C 92 % 1021,8 hPa 0,0 l/m 0 min 0 min 0 W/m 19,3 km/h (3 Bft) 95,74 %
12.01.2020 19:02 8,2 C 7,2 C 6,7 C 92 % 1021,8 hPa 0,0 l/m 0 min 2 min 0 W/m 25,7 km/h (4 Bft) 95,74 %
12.01.2020 19:04 8,2 C 6,7 C 6,7 C 92 % 1021,8 hPa 0,0 l/m 0 min 2 min 0 W/m 29,0 km/h (5 Bft) 95,74 %
12.01.2020 19:06 8,3 C 6,7 C 6,1 C 92 % 1021,8 hPa 0,0 l/m 0 min 2 min 0 W/m 22,5 km/h (4 Bft) 95,65 %
12.01.2020 19:08 8,3 C 6,7 C 6,1 C 92 % 1021,8 hPa 0,0 l/m 0 min 2 min 0 W/m 22,5 km/h (4 Bft) 95,74 %
12.01.2020 19:10 8,2 C 6,7 C 6,1 C 92 % 1021,8 hPa 0,0 l/m 0 min 2 min 0 W/m 32,2 km/h (5 Bft) 95,74 %
12.01.2020 19:12 8,2 C 6,7 C 6,1 C 92 % 1021,8 hPa 0,0 l/m 0 min 2 min 0 W/m 16,1 km/h (3 Bft) 93,62 %
12.01.2020 19:14 8,2 C 6,7 C 6,1 C 92 % 1021,9 hPa 0,0 l/m 0 min 2 min 0 W/m 29,0 km/h (5 Bft) 93,62 %
12.01.2020 19:16 8,2 C 6,7 C 6,1 C 92 % 1021,9 hPa 0,0 l/m 0 min 2 min 0 W/m 32,2 km/h (5 Bft) 95,74 %
12.01.2020 19:18 8,2 C 6,7 C 6,1 C 92 % 1021,8 hPa 0,0 l/m 0 min 2 min 0 W/m 19,3 km/h (3 Bft) 95,65 %
12.01.2020 19:20 8,2 C 6,7 C 6,1 C 92 % 1021,8 hPa 0,0 l/m 0 min 2 min 0 W/m 19,3 km/h (3 Bft) 95,74 %
12.01.2020 19:22 8,2 C 6,7 C 6,1 C 92 % 1021,9 hPa 0,0 l/m 0 min 2 min 0 W/m 32,2 km/h (5 Bft) 95,74 %
12.01.2020 19:24 8,2 C 6,7 C 6,1 C 92 % 1021,9 hPa 0,0 l/m 0 min 2 min 0 W/m 25,7 km/h (4 Bft) 93,62 %
12.01.2020 19:26 8,2 C 6,7 C 6,1 C 92 % 1021,9 hPa 0,0 l/m 0 min 2 min 0 W/m 25,7 km/h (4 Bft) 95,74 %
12.01.2020 19:28 8,2 C 6,7 C 6,1 C 92 % 1021,9 hPa 0,0 l/m 0 min 2 min 0 W/m 19,3 km/h (3 Bft) 95,74 %
12.01.2020 19:30 8,2 C 7,2 C 6,1 C 92 % 1021,9 hPa 0,0 l/m 0 min 2 min 0 W/m 25,7 km/h (4 Bft) 95,65 %
12.01.2020 19:32 8,2 C 7,2 C 6,1 C 92 % 1021,9 hPa 0,0 l/m 0 min 2 min 0 W/m 25,7 km/h (4 Bft) 95,74 %
12.01.2020 19:34 8,2 C 6,7 C 6,1 C 92 % 1021,9 hPa 0,0 l/m 0 min 2 min 0 W/m 25,7 km/h (4 Bft) 95,74 %
12.01.2020 19:36 8,2 C 6,7 C 6,1 C 92 % 1021,9 hPa 0,0 l/m 0 min 2 min 0 W/m 22,5 km/h (4 Bft) 93,62 %
12.01.2020 19:38 8,2 C 6,7 C 6,1 C 92 % 1021,9 hPa 0,0 l/m 0 min 2 min 0 W/m 25,7 km/h (4 Bft) 89,36 %
12.01.2020 19:40 8,2 C 6,7 C 6,1 C 93 % 1022,0 hPa 0,0 l/m 0 min 2 min 0 W/m 25,7 km/h (4 Bft) 93,62 %
12.01.2020 19:42 8,1 C 6,7 C 6,1 C 93 % 1021,9 hPa 0,0 l/m 0 min 2 min 0 W/m 25,7 km/h (4 Bft) 93,48 %
12.01.2020 19:44 8,1 C 6,7 C 6,1 C 93 % 1022,0 hPa 0,0 l/m 0 min 2 min 0 W/m 22,5 km/h (4 Bft) 91,49 %
12.01.2020 19:46 8,1 C 6,7 C 6,1 C 93 % 1021,9 hPa 0,0 l/m 0 min 2 min 0 W/m 22,5 km/h (4 Bft) 93,62 %
12.01.2020 19:48 8,1 C 6,7 C 6,1 C 93 % 1021,9 hPa 0,0 l/m 0 min 2 min 0 W/m 41,8 km/h (6 Bft) 95,74 %
12.01.2020 19:50 8,1 C 6,7 C 6,1 C 93 % 1022,0 hPa 0,0 l/m 0 min 2 min 0 W/m 19,3 km/h (3 Bft) 95,74 %
12.01.2020 19:52 8,1 C 6,7 C 6,1 C 93 % 1021,9 hPa 0,0 l/m 0 min 2 min 0 W/m 32,2 km/h (5 Bft) 95,74 %
12.01.2020 19:54 8,1 C 6,7 C 6,1 C 93 % 1022,0 hPa 0,0 l/m 0 min 2 min 0 W/m 16,1 km/h (3 Bft) 97,83 %
12.01.2020 19:56 8,1 C 6,7 C 6,1 C 93 % 1022,0 hPa 0,0 l/m 0 min 2 min 0 W/m 29,0 km/h (5 Bft) 95,74 %
12.01.2020 19:58 8,1 C 6,7 C 6,1 C 93 % 1022,0 hPa 0,0 l/m 0 min 2 min 0 W/m 38,6 km/h (5 Bft) 95,74 %
12.01.2020 20:00 8,0 C 6,7 C 6,1 C 93 % 1021,9 hPa 0,0 l/m 0 min 0 min 0 W/m 16,1 km/h (3 Bft) 97,87 %
12.01.2020 20:02 8,0 C 6,7 C 6,1 C 93 % 1022,0 hPa 0,0 l/m 0 min 0 min 0 W/m 19,3 km/h (3 Bft) 97,87 %
12.01.2020 20:04 8,0 C 6,7 C 6,1 C 93 % 1022,1 hPa 0,0 l/m 0 min 0 min 0 W/m 19,3 km/h (3 Bft) 97,87 %
12.01.2020 20:06 7,9 C 6,7 C 6,1 C 93 % 1022,0 hPa 0,0 l/m 0 min 0 min 0 W/m 22,5 km/h (4 Bft) 97,83 %
12.01.2020 20:08 7,9 C 6,7 C 6,1 C 94 % 1022,0 hPa 0,0 l/m 0 min 0 min 0 W/m 16,1 km/h (3 Bft) 95,74 %
12.01.2020 20:10 7,9 C 6,7 C 6,1 C 94 % 1022,0 hPa 0,0 l/m 0 min 0 min 0 W/m 22,5 km/h (4 Bft) 97,87 %
12.01.2020 20:12 7,9 C 6,7 C 6,1 C 94 % 1022,0 hPa 0,0 l/m 0 min 0 min 0 W/m 16,1 km/h (3 Bft) 97,87 %
12.01.2020 20:14 7,9 C 6,7 C 6,1 C 94 % 1022,0 hPa 0,0 l/m 0 min 0 min 0 W/m 25,7 km/h (4 Bft) 95,74 %
12.01.2020 20:16 7,9 C 6,7 C 6,1 C 94 % 1022,0 hPa 0,0 l/m 0 min 0 min 0 W/m 19,3 km/h (3 Bft) 100,00 %
12.01.2020 20:18 7,9 C 6,7 C 6,1 C 94 % 1022,1 hPa 0,0 l/m 0 min 0 min 0 W/m 19,3 km/h (3 Bft) 95,74 %
12.01.2020 20:20 7,9 C 6,7 C 6,1 C 94 % 1022,1 hPa 0,0 l/m 0 min 0 min 0 W/m 22,5 km/h (4 Bft) 95,65 %
12.01.2020 20:22 7,9 C 6,7 C 6,1 C 94 % 1022,1 hPa 0,0 l/m 0 min 0 min 0 W/m 25,7 km/h (4 Bft) 95,74 %
12.01.2020 20:24 7,9 C 6,7 C 6,1 C 94 % 1022,1 hPa 0,0 l/m 0 min 0 min 0 W/m 22,5 km/h (4 Bft) 97,87 %
12.01.2020 20:26 7,9 C 6,7 C 6,1 C 94 % 1022,1 hPa 0,0 l/m 0 min 0 min 0 W/m 16,1 km/h (3 Bft) 100,00 %
12.01.2020 20:28 7,9 C 6,7 C 6,1 C 94 % 1022,1 hPa 0,0 l/m 0 min 0 min 0 W/m 29,0 km/h (5 Bft) 100,00 %
12.01.2020 20:30 7,9 C 6,7 C 6,1 C 94 % 1022,1 hPa 0,0 l/m 0 min 0 min 0 W/m 38,6 km/h (5 Bft) 100,00 %
12.01.2020 20:32 7,9 C 6,7 C 6,1 C 94 % 1022,1 hPa 0,0 l/m 0 min 0 min 0 W/m 35,4 km/h (5 Bft) 97,83 %
12.01.2020 20:34 7,9 C 6,7 C 6,1 C 94 % 1022,1 hPa 0,0 l/m 0 min 0 min 0 W/m 19,3 km/h (3 Bft) 97,87 %
12.01.2020 20:36 7,9 C 6,7 C 6,1 C 94 % 1022,2 hPa 0,0 l/m 0 min 0 min 0 W/m 32,2 km/h (5 Bft) 100,00 %
12.01.2020 20:38 7,9 C 7,2 C 6,7 C 94 % 1022,1 hPa 0,0 l/m 0 min 0 min 0 W/m 35,4 km/h (5 Bft) 100,00 %
12.01.2020 20:40 7,9 C 7,2 C 6,7 C 94 % 1022,1 hPa 0,0 l/m 0 min 0 min 0 W/m 22,5 km/h (4 Bft) 100,00 %
12.01.2020 20:42 7,9 C 6,7 C 6,1 C 94 % 1022,2 hPa 0,0 l/m 0 min 0 min 0 W/m 22,5 km/h (4 Bft) 97,87 %
12.01.2020 20:44 7,9 C 7,2 C 6,1 C 94 % 1022,2 hPa 0,0 l/m 0 min 0 min 0 W/m 25,7 km/h (4 Bft) 100,00 %
12.01.2020 20:46 7,9 C 6,7 C 6,1 C 94 % 1022,2 hPa 0,0 l/m 0 min 0 min 0 W/m 16,1 km/h (3 Bft) 100,00 %
12.01.2020 20:48 7,8 C 6,7 C 6,1 C 94 % 1022,2 hPa 0,0 l/m 0 min 0 min 0 W/m 19,3 km/h (3 Bft) 100,00 %
12.01.2020 20:50 7,8 C 6,7 C 6,1 C 94 % 1022,2 hPa 0,0 l/m 0 min 0 min 0 W/m 22,5 km/h (4 Bft) 100,00 %
12.01.2020 20:52 7,8 C 6,7 C 6,1 C 94 % 1022,2 hPa 0,0 l/m 0 min 0 min 0 W/m 25,7 km/h (4 Bft) 100,00 %
12.01.2020 20:54 7,8 C 7,2 C 6,1 C 94 % 1022,2 hPa 0,0 l/m 0 min 0 min 0 W/m 25,7 km/h (4 Bft) 100,00 %
12.01.2020 20:56 7,8 C 7,2 C 6,1 C 94 % 1022,2 hPa 0,0 l/m 0 min 0 min 0 W/m 19,3 km/h (3 Bft) 100,00 %
12.01.2020 20:58 7,8 C 7,2 C 6,7 C 94 % 1022,2 hPa 0,0 l/m 0 min 0 min 0 W/m 22,5 km/h (4 Bft) 100,00 %
12.01.2020 21:00 7,8 C 7,2 C 6,1 C 94 % 1022,2 hPa 0,0 l/m 0 min 0 min 0 W/m 12,9 km/h (3 Bft) 100,00 %
12.01.2020 21:02 7,8 C 7,2 C 6,1 C 94 % 1022,2 hPa 0,0 l/m 0 min 0 min 0 W/m 9,7 km/h (2 Bft) 100,00 %
12.01.2020 21:04 7,8 C 7,2 C 6,7 C 94 % 1022,2 hPa 0,0 l/m 0 min 0 min 0 W/m 16,1 km/h (3 Bft) 100,00 %
12.01.2020 21:06 7,8 C 7,2 C 6,7 C 94 % 1022,2 hPa 0,0 l/m 0 min 0 min 0 W/m 19,3 km/h (3 Bft) 100,00 %
12.01.2020 21:08 7,8 C 7,2 C 6,7 C 94 % 1022,2 hPa 0,0 l/m 0 min 0 min 0 W/m 19,3 km/h (3 Bft) 100,00 %
12.01.2020 21:10 7,8 C 7,2 C 6,7 C 94 % 1022,3 hPa 0,0 l/m 0 min 0 min 0 W/m 6,4 km/h (2 Bft) 100,00 %
12.01.2020 21:12 7,8 C 7,2 C 6,7 C 94 % 1022,3 hPa 0,0 l/m 0 min 0 min 0 W/m 19,3 km/h (3 Bft) 100,00 %
12.01.2020 21:14 7,8 C 7,2 C 6,7 C 94 % 1022,4 hPa 0,0 l/m 0 min 0 min 0 W/m 16,1 km/h (3 Bft) 100,00 %
12.01.2020 21:16 7,8 C 7,2 C 6,7 C 94 % 1022,4 hPa 0,0 l/m 0 min 0 min 0 W/m 16,1 km/h (3 Bft) 100,00 %
12.01.2020 21:18 7,8 C 7,2 C 6,7 C 94 % 1022,4 hPa 0,0 l/m 0 min 0 min 0 W/m 19,3 km/h (3 Bft) 100,00 %
12.01.2020 21:20 7,8 C 7,2 C 6,7 C 94 % 1022,4 hPa 0,0 l/m 0 min 0 min 0 W/m 25,7 km/h (4 Bft) 100,00 %
12.01.2020 21:22 7,9 C 7,2 C 6,7 C 94 % 1022,4 hPa 0,0 l/m 0 min 0 min 0 W/m 16,1 km/h (3 Bft) 100,00 %
12.01.2020 21:24 7,9 C 7,2 C 6,7 C 94 % 1022,4 hPa 0,0 l/m 0 min 0 min 0 W/m 16,1 km/h (3 Bft) 100,00 %
12.01.2020 21:26 7,9 C 7,2 C 6,7 C 94 % 1022,4 hPa 0,0 l/m 0 min 0 min 0 W/m 16,1 km/h (3 Bft) 97,87 %
12.01.2020 21:28 7,9 C 7,2 C 6,7 C 94 % 1022,5 hPa 0,0 l/m 0 min 0 min 0 W/m 16,1 km/h (3 Bft) 100,00 %
12.01.2020 21:30 7,9 C 7,2 C 6,7 C 94 % 1022,5 hPa 0,0 l/m 0 min 0 min 0 W/m 16,1 km/h (3 Bft) 100,00 %
12.01.2020 21:32 7,9 C 7,2 C 6,7 C 94 % 1022,6 hPa 0,0 l/m 0 min 0 min 0 W/m 12,9 km/h (3 Bft) 97,87 %
12.01.2020 21:34 7,9 C 7,2 C 6,7 C 94 % 1022,6 hPa 0,0 l/m 0 min 0 min 0 W/m 12,9 km/h (3 Bft) 100,00 %
12.01.2020 21:36 7,9 C 7,2 C 6,7 C 94 % 1022,6 hPa 0,0 l/m 0 min 0 min 0 W/m 0,0 km/h (0 Bft) 95,74 %
12.01.2020 21:38 7,8 C 7,2 C 6,7 C 94 % 1022,5 hPa 0,0 l/m 0 min 0 min 0 W/m 12,9 km/h (3 Bft) 100,00 %
12.01.2020 21:40 7,9 C 7,2 C 6,7 C 94 % 1022,6 hPa 0,0 l/m 0 min 0 min 0 W/m 19,3 km/h (3 Bft) 97,87 %
12.01.2020 21:42 7,9 C 7,2 C 6,7 C 94 % 1022,6 hPa 0,0 l/m 0 min 0 min 0 W/m 12,9 km/h (3 Bft) 100,00 %
12.01.2020 21:44 7,8 C 7,2 C 6,7 C 94 % 1022,6 hPa 0,0 l/m 0 min 0 min 0 W/m 25,7 km/h (4 Bft) 98,15 %
12.01.2020 21:46 7,9 C 7,2 C 6,7 C 94 % 1022,6 hPa 0,0 l/m 0 min 0 min 0 W/m 12,9 km/h (3 Bft) 95,74 %
12.01.2020 21:48 7,9 C 7,2 C 6,7 C 94 % 1022,7 hPa 0,0 l/m 0 min 0 min 0 W/m 12,9 km/h (3 Bft) 82,98 %
12.01.2020 21:50 7,9 C 7,2 C 6,7 C 94 % 1022,7 hPa 0,0 l/m 0 min 0 min 0 W/m 12,9 km/h (3 Bft) 67,44 %
12.01.2020 21:52 7,9 C 7,2 C 6,7 C 94 % 1022,7 hPa 0,0 l/m 0 min 0 min 0 W/m 19,3 km/h (3 Bft) 97,83 %
12.01.2020 21:54 7,9 C 7,2 C 6,7 C 94 % 1022,7 hPa 0,0 l/m 0 min 0 min 0 W/m 19,3 km/h (3 Bft) 97,87 %
12.01.2020 21:56 7,9 C 7,2 C 6,7 C 94 % 1022,7 hPa 0,0 l/m 0 min 0 min 0 W/m 19,3 km/h (3 Bft) 97,87 %
12.01.2020 21:58 7,9 C 7,2 C 6,7 C 94 % 1022,7 hPa 0,0 l/m 0 min 0 min 0 W/m 16,1 km/h (3 Bft) 97,87 %
12.01.2020 22:00 7,9 C 7,2 C 6,7 C 94 % 1022,8 hPa 0,0 l/m 0 min 0 min 0 W/m 12,9 km/h (3 Bft) 97,87 %
12.01.2020 22:02 7,9 C 7,2 C 6,7 C 94 % 1022,7 hPa 0,0 l/m 0 min 0 min 0 W/m 19,3 km/h (3 Bft) 98,00 %
12.01.2020 22:04 7,9 C 7,2 C 6,7 C 94 % 1022,7 hPa 0,0 l/m 0 min 0 min 0 W/m 16,1 km/h (3 Bft) 97,83 %
12.01.2020 22:06 7,9 C 7,2 C 6,7 C 94 % 1022,8 hPa 0,0 l/m 0 min 0 min 0 W/m 16,1 km/h (3 Bft) 97,87 %
12.01.2020 22:08 7,9 C 7,2 C 6,7 C 94 % 1022,7 hPa 0,0 l/m 0 min 0 min 0 W/m 19,3 km/h (3 Bft) 95,74 %
12.01.2020 22:10 8,0 C 7,2 C 6,7 C 94 % 1022,8 hPa 0,0 l/m 0 min 0 min 0 W/m 16,1 km/h (3 Bft) 97,87 %
12.01.2020 22:12 8,0 C 7,2 C 6,7 C 94 % 1022,8 hPa 0,0 l/m 0 min 0 min 0 W/m 16,1 km/h (3 Bft) 93,75 %
12.01.2020 22:14 8,0 C 7,2 C 6,7 C 94 % 1022,7 hPa 0,0 l/m 0 min 0 min 0 W/m 16,1 km/h (3 Bft) 97,87 %
12.01.2020 22:16 8,0 C 7,2 C 6,7 C 94 % 1022,8 hPa 0,0 l/m 0 min 0 min 0 W/m 22,5 km/h (4 Bft) 97,87 %
12.01.2020 22:18 8,0 C 7,2 C 6,7 C 94 % 1022,7 hPa 0,0 l/m 0 min 0 min 0 W/m 16,1 km/h (3 Bft) 97,87 %
12.01.2020 22:20 8,0 C 7,2 C 6,7 C 94 % 1022,7 hPa 0,0 l/m 0 min 0 min 0 W/m 25,7 km/h (4 Bft) 94,29 %
12.01.2020 22:22 8,0 C 7,2 C 6,7 C 93 % 1022,8 hPa 0,0 l/m 0 min 0 min 0 W/m 22,5 km/h (4 Bft) 95,74 %
12.01.2020 22:24 8,0 C 7,2 C 6,7 C 93 % 1022,7 hPa 0,0 l/m 0 min 0 min 0 W/m 16,1 km/h (3 Bft) 95,74 %
12.01.2020 22:26 8,0 C 7,2 C 6,7 C 93 % 1022,7 hPa 0,0 l/m 0 min 0 min 0 W/m 19,3 km/h (3 Bft) 93,62 %
12.01.2020 22:28 7,9 C 7,2 C 6,7 C 93 % 1022,8 hPa 0,0 l/m 0 min 0 min 0 W/m 19,3 km/h (3 Bft) 93,48 %
12.01.2020 22:30 7,9 C 7,2 C 6,7 C 93 % 1022,8 hPa 0,0 l/m 0 min 0 min 0 W/m 19,3 km/h (3 Bft) 91,49 %
12.01.2020 22:32 7,9 C 7,2 C 6,1 C 93 % 1022,8 hPa 0,0 l/m 0 min 0 min 0 W/m 12,9 km/h (3 Bft) 95,74 %
12.01.2020 22:34 7,9 C 6,7 C 6,1 C 93 % 1022,9 hPa 0,0 l/m 0 min 0 min 0 W/m 6,4 km/h (2 Bft) 93,62 %
12.01.2020 22:36 7,9 C 6,7 C 6,1 C 93 % 1022,9 hPa 0,0 l/m 0 min 0 min 0 W/m 16,1 km/h (3 Bft) 93,62 %
12.01.2020 22:38 7,9 C 6,7 C 6,1 C 93 % 1022,9 hPa 0,0 l/m 0 min 0 min 0 W/m 16,1 km/h (3 Bft) 94,44 %
12.01.2020 22:40 7,8 C 6,7 C 6,1 C 93 % 1022,9 hPa 0,0 l/m 0 min 0 min 0 W/m 19,3 km/h (3 Bft) 95,65 %
12.01.2020 22:42 7,8 C 6,7 C 6,1 C 93 % 1022,8 hPa 0,0 l/m 0 min 0 min 0 W/m 16,1 km/h (3 Bft) 95,74 %
12.01.2020 22:44 7,8 C 6,7 C 6,1 C 93 % 1022,9 hPa 0,0 l/m 0 min 0 min 0 W/m 19,3 km/h (3 Bft) 95,74 %
12.01.2020 22:46 7,8 C 6,7 C 6,1 C 93 % 1022,9 hPa 0,0 l/m 0 min 0 min 0 W/m 12,9 km/h (3 Bft) 95,74 %
12.01.2020 22:48 7,8 C 6,7 C 6,1 C 93 % 1022,8 hPa 0,0 l/m 0 min 0 min 0 W/m 12,9 km/h (3 Bft) 93,62 %
12.01.2020 22:50 7,8 C 6,7 C 6,1 C 93 % 1022,9 hPa 0,0 l/m 0 min 0 min 0 W/m 12,9 km/h (3 Bft) 95,74 %
12.01.2020 22:52 7,7 C 6,7 C 6,1 C 93 % 1022,9 hPa 0,0 l/m 0 min 0 min 0 W/m 16,1 km/h (3 Bft) 93,48 %
12.01.2020 22:54 7,7 C 6,7 C 6,1 C 93 % 1022,9 hPa 0,0 l/m 0 min 0 min 0 W/m 19,3 km/h (3 Bft) 95,74 %
12.01.2020 22:56 7,7 C 6,7 C 6,1 C 93 % 1023,0 hPa 0,0 l/m 0 min 0 min 0 W/m 19,3 km/h (3 Bft) 93,62 %
12.01.2020 22:58 7,7 C 7,2 C 6,1 C 93 % 1022,9 hPa 0,0 l/m 0 min 0 min 0 W/m 16,1 km/h (3 Bft) 95,74 %
12.01.2020 23:00 7,7 C 7,2 C 6,1 C 93 % 1023,0 hPa 0,0 l/m 0 min 0 min 0 W/m 16,1 km/h (3 Bft) 95,74 %
12.01.2020 23:02 7,7 C 6,7 C 6,1 C 93 % 1023,0 hPa 0,0 l/m 0 min 0 min 0 W/m 12,9 km/h (3 Bft) 95,65 %
12.01.2020 23:04 7,7 C 7,2 C 6,1 C 93 % 1023,0 hPa 0,0 l/m 0 min 0 min 0 W/m 16,1 km/h (3 Bft) 95,74 %
12.01.2020 23:06 7,7 C 7,2 C 6,1 C 93 % 1023,1 hPa 0,0 l/m 0 min 0 min 0 W/m 16,1 km/h (3 Bft) 95,74 %
12.01.2020 23:08 7,7 C 7,2 C 6,7 C 93 % 1023,1 hPa 0,0 l/m 0 min 0 min 0 W/m 16,1 km/h (3 Bft) 97,87 %
12.01.2020 23:10 7,7 C 7,2 C 6,7 C 93 % 1023,1 hPa 0,0 l/m 0 min 0 min 0 W/m 19,3 km/h (3 Bft) 95,74 %
12.01.2020 23:12 7,7 C 7,2 C 6,7 C 93 % 1023,0 hPa 0,0 l/m 0 min 0 min 0 W/m 29,0 km/h (5 Bft) 97,87 %
12.01.2020 23:14 7,8 C 7,2 C 6,7 C 94 % 1023,2 hPa 0,0 l/m 0 min 0 min 0 W/m 29,0 km/h (5 Bft) 95,65 %
12.01.2020 23:16 7,8 C 7,2 C 6,7 C 94 % 1023,1 hPa 0,0 l/m 0 min 0 min 0 W/m 19,3 km/h (3 Bft) 100,00 %
12.01.2020 23:18 7,8 C 7,2 C 6,7 C 94 % 1023,2 hPa 0,0 l/m 0 min 0 min 0 W/m 12,9 km/h (3 Bft) 95,74 %
12.01.2020 23:20 7,8 C 7,2 C 6,7 C 94 % 1023,1 hPa 0,0 l/m 0 min 0 min 0 W/m 19,3 km/h (3 Bft) 95,74 %
12.01.2020 23:22 7,8 C 7,2 C 6,7 C 94 % 1023,2 hPa 0,0 l/m 0 min 0 min 0 W/m 16,1 km/h (3 Bft) 95,74 %
12.01.2020 23:24 7,8 C 7,2 C 6,7 C 94 % 1023,2 hPa 0,0 l/m 0 min 0 min 0 W/m 12,9 km/h (3 Bft) 96,00 %
12.01.2020 23:26 7,8 C 7,2 C 6,7 C 94 % 1023,2 hPa 0,0 l/m 0 min 0 min 0 W/m 22,5 km/h (4 Bft) 100,00 %
12.01.2020 23:28 7,8 C 7,2 C 6,7 C 94 % 1023,2 hPa 0,0 l/m 0 min 0 min 0 W/m 22,5 km/h (4 Bft) 100,00 %
12.01.2020 23:30 7,8 C 7,2 C 6,7 C 94 % 1023,2 hPa 0,0 l/m 0 min 0 min 0 W/m 19,3 km/h (3 Bft) 100,00 %
12.01.2020 23:32 7,8 C 7,2 C 6,7 C 94 % 1023,2 hPa 0,0 l/m 0 min 0 min 0 W/m 16,1 km/h (3 Bft) 100,00 %
12.01.2020 23:34 7,8 C 7,2 C 6,7 C 94 % 1023,3 hPa 0,0 l/m 0 min 0 min 0 W/m 25,7 km/h (4 Bft) 100,00 %
12.01.2020 23:36 7,8 C 7,2 C 6,7 C 94 % 1023,3 hPa 0,0 l/m 0 min 0 min 0 W/m 19,3 km/h (3 Bft) 97,83 %
12.01.2020 23:38 7,9 C 7,2 C 6,7 C 94 % 1023,2 hPa 0,0 l/m 0 min 0 min 0 W/m 25,7 km/h (4 Bft) 100,00 %
12.01.2020 23:40 7,9 C 7,2 C 6,7 C 94 % 1023,3 hPa 0,0 l/m 0 min 0 min 0 W/m 25,7 km/h (4 Bft) 100,00 %
12.01.2020 23:42 7,9 C 7,2 C 6,7 C 94 % 1023,2 hPa 0,0 l/m 0 min 0 min 0 W/m 22,5 km/h (4 Bft) 100,00 %
12.01.2020 23:44 7,9 C 7,2 C 6,7 C 94 % 1023,3 hPa 0,0 l/m 0 min 0 min 0 W/m 19,3 km/h (3 Bft) 100,00 %
12.01.2020 23:46 7,9 C 7,2 C 6,7 C 94 % 1023,2 hPa 0,0 l/m 0 min 0 min 0 W/m 16,1 km/h (3 Bft) 100,00 %
12.01.2020 23:48 7,9 C 7,2 C 6,7 C 94 % 1023,2 hPa 0,0 l/m 0 min 0 min 0 W/m 12,9 km/h (3 Bft) 100,00 %
12.01.2020 23:50 7,9 C 6,7 C 6,1 C 94 % 1023,1 hPa 0,0 l/m 0 min 0 min 0 W/m 16,1 km/h (3 Bft) 100,00 %
12.01.2020 23:52 7,8 C 7,2 C 6,1 C 94 % 1023,2 hPa 0,0 l/m 0 min 0 min 0 W/m 32,2 km/h (5 Bft) 100,00 %
12.01.2020 23:54 7,8 C 7,2 C 6,1 C 94 % 1023,1 hPa 0,0 l/m 0 min 0 min 0 W/m 22,5 km/h (4 Bft) 100,00 %
12.01.2020 23:56 7,8 C 6,7 C 6,1 C 94 % 1023,1 hPa 0,0 l/m 0 min 0 min 0 W/m 16,1 km/h (3 Bft) 100,00 %
12.01.2020 23:58 7,8 C 6,7 C 6,1 C 94 % 1023,2 hPa 0,0 l/m 0 min 0 min 0 W/m 16,1 km/h (3 Bft) 100,00 %
_ Min-Zeit 02:06 01:04 01:58 11:44 14:24 - - - - 11:22 03:24
Minimum _ 2,8 C 2,2 C 1,1 C 84 % 1020,6 hPa - - - - 0,0 km/h (0 Bft) 44,44 %
_ Max-Zeit 19:06 11:44 11:34 14:56 00:00 14:10 00:00 13:48 11:46 13:16 00:00
Maximum _ 8,3 C 8,3 C 7,2 C 96 % 1027,5 hPa 0,2 l/m 0 min 2 min 153 W/m 48,3 km/h
S-SO (6 Bft)
100,00 %
Durchschnitt _ 6,0 C 5,4 C 4,7 C 91 % 1023,0 hPa #0,2 l/m #0 min. #1:26 h 39 W/m 20,8 km/h (4 Bft) 97,35 %
© 2020 W. Hausmann